Time,TemperatureF,DewpointF,PressureIn,WindDirection,WindDirectionDegrees,WindSpeedMPH,WindSpeedGustMPH,Humidity,HourlyPrecipIn,Conditions,Clouds,dailyrainin,SoftwareType,DateUTC
2013-01-29 00:01:00,69.4,65.4,29.77,SE,136,8.0,8.0,87,0.00,,,0.00,Wunderground v.1.15,2013-01-29 06:01:00,
2013-01-29 00:03:00,69.4,65.4,29.77,SSE,155,7.0,8.0,87,0.00,,,0.00,Wunderground v.1.15,2013-01-29 06:03:00,
2013-01-29 00:05:00,69.4,65.4,29.77,SE,143,8.0,12.0,87,0.00,,,0.00,Wunderground v.1.15,2013-01-29 06:05:00,
2013-01-29 00:06:00,69.4,65.4,29.77,SE,130,8.0,13.0,87,0.00,,,0.00,Wunderground v.1.15,2013-01-29 06:06:00,
2013-01-29 00:09:00,69.4,65.4,29.77,South,169,8.0,13.0,87,0.00,,,0.00,Wunderground v.1.15,2013-01-29 06:09:00,
2013-01-29 00:11:00,69.4,65.4,29.77,SSE,165,8.0,8.0,87,0.00,,,0.00,Wunderground v.1.15,2013-01-29 06:11:00,
2013-01-29 00:13:00,69.4,65.4,29.77,South,178,8.0,10.0,87,0.00,,,0.00,Wunderground v.1.15,2013-01-29 06:13:00,
2013-01-29 00:14:00,69.6,65.6,29.77,South,181,8.0,10.0,87,0.00,,,0.00,Wunderground v.1.15,2013-01-29 06:14:00,
2013-01-29 00:19:00,69.6,65.6,29.76,SSE,162,8.0,13.0,87,0.00,,,0.00,Wunderground v.1.15,2013-01-29 06:19:00,
2013-01-29 00:21:00,69.6,65.6,29.76,SSE,165,9.0,9.0,87,0.00,,,0.00,Wunderground v.1.15,2013-01-29 06:21:00,
2013-01-29 00:24:00,69.6,65.6,29.76,SE,133,8.0,11.0,87,0.00,,,0.00,Wunderground v.1.15,2013-01-29 06:24:00,
2013-01-29 00:26:00,69.6,65.6,29.76,SSE,152,9.0,14.0,87,0.00,,,0.00,Wunderground v.1.15,2013-01-29 06:26:00,
2013-01-29 00:27:00,69.6,65.6,29.76,SSE,148,9.0,14.0,87,0.00,,,0.00,Wunderground v.1.15,2013-01-29 06:27:00,
2013-01-29 00:31:00,69.4,65.4,29.75,South,184,8.0,11.0,87,0.00,,,0.00,Wunderground v.1.15,2013-01-29 06:31:00,
2013-01-29 00:32:00,69.4,65.4,29.75,South,188,8.0,11.0,87,0.00,,,0.00,Wunderground v.1.15,2013-01-29 06:32:00,
2013-01-29 00:34:00,69.4,65.4,29.75,SE,127,8.0,11.0,87,0.00,,,0.00,Wunderground v.1.15,2013-01-29 06:34:00,
2013-01-29 00:36:00,69.4,65.4,29.75,South,185,7.0,11.0,87,0.00,,,0.00,Wunderground v.1.15,2013-01-29 06:36:00,
2013-01-29 00:37:00,69.4,65.4,29.75,South,172,7.0,11.0,87,0.00,,,0.00,Wunderground v.1.15,2013-01-29 06:37:00,
2013-01-29 00:38:00,69.4,65.4,29.75,SE,137,6.0,11.0,87,0.00,,,0.00,Wunderground v.1.15,2013-01-29 06:38:00,
2013-01-29 00:43:00,69.4,65.4,29.75,South,174,6.0,7.0,87,0.00,,,0.00,Wunderground v.1.15,2013-01-29 06:43:00,
2013-01-29 00:44:00,69.4,65.4,29.75,South,184,7.0,8.0,87,0.00,,,0.00,Wunderground v.1.15,2013-01-29 06:44:00,
2013-01-29 00:45:00,69.4,65.4,29.75,SE,137,7.0,8.0,87,0.00,,,0.00,Wunderground v.1.15,2013-01-29 06:45:00,
2013-01-29 00:51:00,69.4,65.4,29.75,South,178,6.0,6.0,87,0.00,,,0.00,Wunderground v.1.15,2013-01-29 06:51:00,
2013-01-29 00:53:00,69.4,65.4,29.75,SE,137,6.0,8.0,87,0.00,,,0.00,Wunderground v.1.15,2013-01-29 06:53:00,
2013-01-29 00:55:00,69.4,65.4,29.75,South,178,7.0,8.0,87,0.00,,,0.00,Wunderground v.1.15,2013-01-29 06:55:00,
2013-01-29 00:59:00,69.4,65.4,29.75,SSE,165,6.0,8.0,87,0.00,,,0.00,Wunderground v.1.15,2013-01-29 06:59:00,
2013-01-29 01:01:00,69.4,65.4,29.75,South,191,6.0,10.0,87,0.00,,,0.00,Wunderground v.1.15,2013-01-29 07:01:00,
2013-01-29 01:04:00,69.4,65.4,29.75,SSE,164,6.0,10.0,87,0.00,,,0.00,Wunderground v.1.15,2013-01-29 07:04:00,
2013-01-29 01:05:00,69.4,65.4,29.75,SSE,164,6.0,10.0,87,0.00,,,0.00,Wunderground v.1.15,2013-01-29 07:05:00,
2013-01-29 01:06:00,69.4,65.4,29.75,SSE,165,6.0,10.0,87,0.00,,,0.00,Wunderground v.1.15,2013-01-29 07:06:00,
2013-01-29 01:08:00,69.4,65.4,29.75,SSE,164,6.0,11.0,87,0.00,,,0.00,Wunderground v.1.15,2013-01-29 07:08:00,
2013-01-29 01:12:00,69.4,65.4,29.75,South,178,6.0,7.0,87,0.00,,,0.00,Wunderground v.1.15,2013-01-29 07:12:00,
2013-01-29 01:13:00,69.4,65.4,29.75,SSE,167,6.0,7.0,87,0.00,,,0.00,Wunderground v.1.15,2013-01-29 07:13:00,
2013-01-29 01:14:00,69.4,65.4,29.75,South,182,6.0,7.0,87,0.00,,,0.00,Wunderground v.1.15,2013-01-29 07:14:00,
2013-01-29 01:18:00,69.6,65.6,29.75,South,185,6.0,13.0,87,0.00,,,0.00,Wunderground v.1.15,2013-01-29 07:18:00,
2013-01-29 01:23:00,69.6,65.6,29.75,SSE,148,6.0,11.0,87,0.00,,,0.00,Wunderground v.1.15,2013-01-29 07:23:00,
2013-01-29 01:24:00,69.6,65.6,29.75,SSE,161,6.0,13.0,87,0.00,,,0.00,Wunderground v.1.15,2013-01-29 07:24:00,
2013-01-29 01:26:00,69.6,65.2,29.75,South,172,7.0,13.0,86,0.00,,,0.00,Wunderground v.1.15,2013-01-29 07:26:00,
2013-01-29 01:29:00,69.6,65.2,29.75,SSE,165,6.0,13.0,86,0.00,,,0.00,Wunderground v.1.15,2013-01-29 07:29:00,
2013-01-29 01:31:00,69.6,65.2,29.74,SSE,152,7.0,7.0,86,0.00,,,0.00,Wunderground v.1.15,2013-01-29 07:31:00,
2013-01-29 01:34:00,69.6,65.2,29.74,South,179,7.0,8.0,86,0.00,,,0.00,Wunderground v.1.15,2013-01-29 07:34:00,
2013-01-29 01:35:00,69.6,65.2,29.74,South,169,7.0,8.0,86,0.00,,,0.00,Wunderground v.1.15,2013-01-29 07:35:00,
2013-01-29 01:39:00,69.6,65.2,29.74,South,169,7.0,8.0,86,0.00,,,0.00,Wunderground v.1.15,2013-01-29 07:39:00,
2013-01-29 01:41:00,69.6,65.2,29.74,SE,140,7.0,10.0,86,0.00,,,0.00,Wunderground v.1.15,2013-01-29 07:41:00,
2013-01-29 01:42:00,69.6,65.2,29.74,SE,144,7.0,10.0,86,0.00,,,0.00,Wunderground v.1.15,2013-01-29 07:42:00,
2013-01-29 01:44:00,69.6,65.2,29.74,South,186,7.0,10.0,86,0.00,,,0.00,Wunderground v.1.15,2013-01-29 07:44:00,
2013-01-29 01:45:00,69.6,65.2,29.74,South,169,7.0,10.0,86,0.00,,,0.00,Wunderground v.1.15,2013-01-29 07:45:00,
2013-01-29 01:47:00,69.6,65.2,29.74,SSE,148,7.0,11.0,86,0.00,,,0.00,Wunderground v.1.15,2013-01-29 07:47:00,
2013-01-29 01:51:00,69.6,65.2,29.74,SSE,151,7.0,11.0,86,0.00,,,0.00,Wunderground v.1.15,2013-01-29 07:51:00,
2013-01-29 01:52:00,69.6,65.2,29.74,SSE,150,7.0,8.0,86,0.00,,,0.00,Wunderground v.1.15,2013-01-29 07:52:00,
2013-01-29 01:55:00,69.6,65.2,29.74,South,188,7.0,11.0,86,0.00,,,0.00,Wunderground v.1.15,2013-01-29 07:55:00,
2013-01-29 01:58:00,69.6,65.2,29.74,SE,145,7.0,11.0,86,0.00,,,0.00,Wunderground v.1.15,2013-01-29 07:58:00,
2013-01-29 02:01:00,69.6,65.2,29.72,SE,141,7.0,7.0,86,0.00,,,0.00,Wunderground v.1.15,2013-01-29 08:01:00,
2013-01-29 02:02:00,69.6,65.2,29.72,SSE,160,7.0,12.0,86,0.00,,,0.00,Wunderground v.1.15,2013-01-29 08:02:00,
2013-01-29 02:06:00,69.6,65.2,29.72,SSE,158,8.0,12.0,86,0.00,,,0.00,Wunderground v.1.15,2013-01-29 08:06:00,
2013-01-29 02:07:00,69.6,65.2,29.72,SSE,151,8.0,12.0,86,0.00,,,0.00,Wunderground v.1.15,2013-01-29 08:07:00,
2013-01-29 02:09:00,69.6,65.2,29.72,South,185,8.0,12.0,86,0.00,,,0.00,Wunderground v.1.15,2013-01-29 08:09:00,
2013-01-29 02:11:00,69.6,65.2,29.72,ESE,107,7.0,7.0,86,0.00,,,0.00,Wunderground v.1.15,2013-01-29 08:11:00,
2013-01-29 02:14:00,69.6,65.2,29.72,SE,144,6.0,7.0,86,0.00,,,0.00,Wunderground v.1.15,2013-01-29 08:14:00,
2013-01-29 02:16:00,69.6,65.2,29.73,SSE,168,5.0,11.0,86,0.00,,,0.00,Wunderground v.1.15,2013-01-29 08:16:00,
2013-01-29 02:19:00,69.6,65.2,29.73,SSE,168,6.0,11.0,86,0.00,,,0.00,Wunderground v.1.15,2013-01-29 08:19:00,
2013-01-29 02:21:00,69.6,65.2,29.73,South,191,6.0,6.0,86,0.00,,,0.00,Wunderground v.1.15,2013-01-29 08:21:00,
2013-01-29 02:22:00,69.6,65.2,29.73,SSW,196,6.0,6.0,86,0.00,,,0.00,Wunderground v.1.15,2013-01-29 08:22:00,
2013-01-29 02:26:00,69.6,65.2,29.73,SSW,193,7.0,12.0,86,0.00,,,0.00,Wunderground v.1.15,2013-01-29 08:26:00,
2013-01-29 02:28:00,69.6,65.2,29.73,South,185,7.0,12.0,86,0.00,,,0.00,Wunderground v.1.15,2013-01-29 08:28:00,
2013-01-29 02:29:00,69.6,65.2,29.73,SSW,199,7.0,12.0,86,0.00,,,0.00,Wunderground v.1.15,2013-01-29 08:29:00,
2013-01-29 02:32:00,69.6,65.2,29.73,South,181,6.0,9.0,86,0.00,,,0.00,Wunderground v.1.15,2013-01-29 08:32:00,
2013-01-29 02:33:00,69.6,65.2,29.73,SSE,148,6.0,9.0,86,0.00,,,0.00,Wunderground v.1.15,2013-01-29 08:33:00,
2013-01-29 02:34:00,69.6,65.2,29.73,South,191,6.0,9.0,86,0.00,,,0.00,Wunderground v.1.15,2013-01-29 08:34:00,
2013-01-29 02:36:00,69.6,65.2,29.73,South,175,6.0,9.0,86,0.00,,,0.00,Wunderground v.1.15,2013-01-29 08:36:00,
2013-01-29 02:38:00,69.6,65.2,29.73,South,176,6.0,9.0,86,0.00,,,0.00,Wunderground v.1.15,2013-01-29 08:38:00,
2013-01-29 02:41:00,69.6,65.2,29.73,SSW,192,5.0,5.0,86,0.00,,,0.00,Wunderground v.1.15,2013-01-29 08:41:00,
2013-01-29 02:42:00,69.6,65.2,29.73,South,185,5.0,5.0,86,0.00,,,0.00,Wunderground v.1.15,2013-01-29 08:42:00,
2013-01-29 02:43:00,69.6,65.2,29.73,South,178,5.0,5.0,86,0.00,,,0.00,Wunderground v.1.15,2013-01-29 08:43:00,
2013-01-29 02:47:00,69.6,65.2,29.73,SSW,192,5.0,7.0,86,0.00,,,0.00,Wunderground v.1.15,2013-01-29 08:47:00,
2013-01-29 02:48:00,69.6,65.2,29.73,SSE,165,4.0,7.0,86,0.00,,,0.00,Wunderground v.1.15,2013-01-29 08:48:00,
2013-01-29 02:51:00,69.6,65.2,29.73,SSE,164,5.0,8.0,86,0.00,,,0.00,Wunderground v.1.15,2013-01-29 08:51:00,
2013-01-29 02:52:00,69.6,65.2,29.73,South,175,5.0,8.0,86,0.00,,,0.00,Wunderground v.1.15,2013-01-29 08:52:00,
2013-01-29 02:55:00,69.6,65.2,29.73,SSE,167,6.0,8.0,86,0.00,,,0.00,Wunderground v.1.15,2013-01-29 08:55:00,
2013-01-29 02:57:00,69.6,65.2,29.73,SSE,167,6.0,8.0,86,0.00,,,0.00,Wunderground v.1.15,2013-01-29 08:57:00,
2013-01-29 02:58:00,69.6,65.2,29.73,SSE,157,6.0,8.0,86,0.00,,,0.00,Wunderground v.1.15,2013-01-29 08:58:00,
2013-01-29 03:02:00,69.6,65.2,29.72,SSE,160,6.0,7.0,86,0.00,,,0.00,Wunderground v.1.15,2013-01-29 09:02:00,
2013-01-29 03:03:00,69.6,65.2,29.72,South,178,6.0,7.0,86,0.00,,,0.00,Wunderground v.1.15,2013-01-29 09:03:00,
2013-01-29 03:05:00,69.6,65.2,29.72,SSE,161,6.0,7.0,86,0.00,,,0.00,Wunderground v.1.15,2013-01-29 09:05:00,
2013-01-29 03:09:00,69.4,65.0,29.72,South,178,5.0,8.0,86,0.00,,,0.00,Wunderground v.1.15,2013-01-29 09:09:00,
2013-01-29 03:11:00,69.4,65.4,29.72,South,172,5.0,7.0,87,0.00,,,0.00,Wunderground v.1.15,2013-01-29 09:11:00,
2013-01-29 03:12:00,69.4,65.4,29.72,South,182,5.0,7.0,87,0.00,,,0.00,Wunderground v.1.15,2013-01-29 09:12:00,
2013-01-29 03:16:00,69.4,65.4,29.72,South,179,5.0,7.0,87,0.00,,,0.00,Wunderground v.1.15,2013-01-29 09:16:00,
2013-01-29 03:17:00,69.4,65.4,29.72,South,176,5.0,7.0,87,0.00,,,0.00,Wunderground v.1.15,2013-01-29 09:17:00,
2013-01-29 03:18:00,69.3,65.3,29.72,SSE,168,4.0,7.0,87,0.00,,,0.00,Wunderground v.1.15,2013-01-29 09:18:00,
2013-01-29 03:21:00,69.3,65.3,29.72,SSE,157,4.0,4.0,87,0.00,,,0.00,Wunderground v.1.15,2013-01-29 09:21:00,
2013-01-29 03:23:00,69.3,65.3,29.72,SSE,160,4.0,13.0,87,0.00,,,0.00,Wunderground v.1.15,2013-01-29 09:23:00,
2013-01-29 03:24:00,69.3,65.3,29.72,South,188,5.0,13.0,87,0.00,,,0.00,Wunderground v.1.15,2013-01-29 09:24:00,
2013-01-29 03:26:00,69.3,65.3,29.72,SSE,147,5.0,13.0,87,0.00,,,0.00,Wunderground v.1.15,2013-01-29 09:26:00,
2013-01-29 03:28:00,69.3,65.6,29.72,South,169,5.0,13.0,88,0.00,,,0.00,Wunderground v.1.15,2013-01-29 09:28:00,
2013-01-29 03:29:00,69.3,65.6,29.72,South,184,4.0,13.0,88,0.00,,,0.00,Wunderground v.1.15,2013-01-29 09:29:00,
2013-01-29 03:32:00,69.1,65.4,29.72,SSE,160,5.0,7.0,88,0.00,,,0.00,Wunderground v.1.15,2013-01-29 09:32:00,
2013-01-29 03:33:00,69.1,65.4,29.72,SE,138,5.0,7.0,88,0.00,,,0.00,Wunderground v.1.15,2013-01-29 09:33:00,
2013-01-29 03:35:00,69.1,65.4,29.72,SE,133,6.0,7.0,88,0.00,,,0.00,Wunderground v.1.15,2013-01-29 09:35:00,
2013-01-29 03:37:00,69.1,65.4,29.72,SSE,150,6.0,7.0,88,0.00,,,0.00,Wunderground v.1.15,2013-01-29 09:37:00,
2013-01-29 03:41:00,69.1,65.4,29.72,ESE,119,5.0,6.0,88,0.00,,,0.00,Wunderground v.1.15,2013-01-29 09:41:00,
2013-01-29 03:43:00,68.9,65.5,29.72,South,175,5.0,14.0,89,0.00,,,0.00,Wunderground v.1.15,2013-01-29 09:43:00,
2013-01-29 03:44:00,68.9,65.5,29.72,SSE,154,5.0,14.0,89,0.00,,,0.00,Wunderground v.1.15,2013-01-29 09:44:00,
2013-01-29 03:46:00,68.9,65.5,29.71,SSE,157,4.0,14.0,89,0.00,,,0.00,Wunderground v.1.15,2013-01-29 09:46:00,
2013-01-29 03:49:00,68.9,65.5,29.71,SSE,152,4.0,14.0,89,0.00,,,0.00,Wunderground v.1.15,2013-01-29 09:49:00,
2013-01-29 03:51:00,68.9,65.5,29.71,SE,130,4.0,14.0,89,0.00,,,0.00,Wunderground v.1.15,2013-01-29 09:51:00,
2013-01-29 03:55:00,68.9,65.5,29.71,SE,141,5.0,5.0,89,0.00,,,0.00,Wunderground v.1.15,2013-01-29 09:55:00,
2013-01-29 03:56:00,68.9,65.5,29.71,South,184,5.0,5.0,89,0.00,,,0.00,Wunderground v.1.15,2013-01-29 09:56:00,
2013-01-29 03:57:00,68.9,65.5,29.71,SSE,157,5.0,5.0,89,0.00,,,0.00,Wunderground v.1.15,2013-01-29 09:57:00,
2013-01-29 04:02:00,68.9,65.5,29.71,SSE,161,5.0,6.0,89,0.00,,,0.00,Wunderground v.1.15,2013-01-29 10:02:00,
2013-01-29 04:03:00,68.9,65.5,29.71,ESE,110,4.0,6.0,89,0.00,,,0.00,Wunderground v.1.15,2013-01-29 10:03:00,
2013-01-29 04:05:00,68.9,65.5,29.71,SE,145,4.0,6.0,89,0.00,,,0.00,Wunderground v.1.15,2013-01-29 10:05:00,
2013-01-29 04:08:00,68.9,65.5,29.71,SSW,196,4.0,6.0,89,0.00,,,0.00,Wunderground v.1.15,2013-01-29 10:08:00,
2013-01-29 04:09:00,68.9,65.5,29.71,SE,145,4.0,6.0,89,0.00,,,0.00,Wunderground v.1.15,2013-01-29 10:09:00,
2013-01-29 04:11:00,68.9,65.5,29.71,SSE,165,5.0,6.0,89,0.00,,,0.00,Wunderground v.1.15,2013-01-29 10:11:00,
2013-01-29 04:12:00,68.9,65.5,29.71,SSE,151,5.0,10.0,89,0.00,,,0.00,Wunderground v.1.15,2013-01-29 10:12:00,
2013-01-29 04:16:00,68.9,65.5,29.70,South,179,5.0,10.0,89,0.00,,,0.00,Wunderground v.1.15,2013-01-29 10:16:00,
2013-01-29 04:17:00,68.9,65.5,29.70,South,191,5.0,10.0,89,0.00,,,0.00,Wunderground v.1.15,2013-01-29 10:17:00,
2013-01-29 04:22:00,69.1,65.4,29.70,SE,140,5.0,7.0,88,0.00,,,0.00,Wunderground v.1.15,2013-01-29 10:22:00,
2013-01-29 04:23:00,69.1,65.4,29.70,South,179,5.0,7.0,88,0.00,,,0.00,Wunderground v.1.15,2013-01-29 10:23:00,
2013-01-29 04:24:00,69.1,65.4,29.70,South,172,5.0,7.0,88,0.00,,,0.00,Wunderground v.1.15,2013-01-29 10:24:00,
2013-01-29 04:29:00,69.1,65.4,29.70,SSE,155,5.0,7.0,88,0.00,,,0.00,Wunderground v.1.15,2013-01-29 10:29:00,
2013-01-29 04:31:00,69.1,65.4,29.70,SE,145,5.0,6.0,88,0.00,,,0.00,Wunderground v.1.15,2013-01-29 10:31:00,
2013-01-29 04:34:00,69.1,65.4,29.70,SSE,167,5.0,12.0,88,0.00,,,0.00,Wunderground v.1.15,2013-01-29 10:34:00,
2013-01-29 04:35:00,69.1,65.4,29.70,SE,137,5.0,12.0,88,0.00,,,0.00,Wunderground v.1.15,2013-01-29 10:35:00,
2013-01-29 04:37:00,69.3,65.3,29.70,South,176,5.0,12.0,87,0.00,,,0.00,Wunderground v.1.15,2013-01-29 10:37:00,
2013-01-29 04:38:00,69.3,65.3,29.70,SW,222,5.0,12.0,87,0.00,,,0.00,Wunderground v.1.15,2013-01-29 10:38:00,
2013-01-29 04:41:00,69.3,65.3,29.70,SSE,164,5.0,5.0,87,0.00,,,0.00,Wunderground v.1.15,2013-01-29 10:41:00,
2013-01-29 04:42:00,69.3,65.3,29.70,South,186,5.0,5.0,87,0.00,,,0.00,Wunderground v.1.15,2013-01-29 10:42:00,
2013-01-29 04:45:00,69.3,65.3,29.70,South,188,6.0,6.0,87,0.00,,,0.00,Wunderground v.1.15,2013-01-29 10:45:00,
2013-01-29 04:47:00,69.3,65.3,29.70,SSE,161,6.0,8.0,87,0.00,,,0.00,Wunderground v.1.15,2013-01-29 10:47:00,
2013-01-29 04:48:00,69.3,65.3,29.70,SSW,195,6.0,8.0,87,0.00,,,0.00,Wunderground v.1.15,2013-01-29 10:48:00,
2013-01-29 04:51:00,69.3,65.3,29.70,South,178,6.0,8.0,87,0.00,,,0.00,Wunderground v.1.15,2013-01-29 10:51:00,
2013-01-29 04:52:00,69.3,65.3,29.70,South,178,6.0,8.0,87,0.00,,,0.00,Wunderground v.1.15,2013-01-29 10:52:00,
2013-01-29 04:54:00,69.3,65.3,29.70,SE,140,6.0,12.0,87,0.00,,,0.00,Wunderground v.1.15,2013-01-29 10:54:00,
2013-01-29 04:55:00,69.3,65.3,29.70,South,175,6.0,12.0,87,0.00,,,0.00,Wunderground v.1.15,2013-01-29 10:55:00,
2013-01-29 04:56:00,69.4,65.4,29.70,South,176,5.0,12.0,87,0.00,,,0.00,Wunderground v.1.15,2013-01-29 10:56:00,
2013-01-29 04:57:00,69.4,65.4,29.70,SE,133,5.0,12.0,87,0.00,,,0.00,Wunderground v.1.15,2013-01-29 10:57:00,
2013-01-29 05:01:00,69.3,65.3,29.69,South,171,5.0,7.0,87,0.00,,,0.00,Wunderground v.1.15,2013-01-29 11:01:00,
2013-01-29 05:02:00,69.3,64.9,29.69,SSE,160,5.0,7.0,86,0.00,,,0.00,Wunderground v.1.15,2013-01-29 11:02:00,
2013-01-29 05:03:00,69.3,64.9,29.69,SSE,165,5.0,7.0,86,0.00,,,0.00,Wunderground v.1.15,2013-01-29 11:03:00,
2013-01-29 05:04:00,69.3,64.9,29.69,South,178,5.0,7.0,86,0.00,,,0.00,Wunderground v.1.15,2013-01-29 11:04:00,
2013-01-29 05:09:00,69.3,64.9,29.69,SSE,147,5.0,11.0,86,0.00,,,0.00,Wunderground v.1.15,2013-01-29 11:09:00,
2013-01-29 05:11:00,69.3,64.9,29.69,SSE,167,5.0,5.0,86,0.00,,,0.00,Wunderground v.1.15,2013-01-29 11:11:00,
2013-01-29 05:12:00,69.3,64.9,29.69,South,174,5.0,10.0,86,0.00,,,0.00,Wunderground v.1.15,2013-01-29 11:12:00,
2013-01-29 05:14:00,69.3,64.9,29.69,SE,134,5.0,10.0,86,0.00,,,0.00,Wunderground v.1.15,2013-01-29 11:14:00,
2013-01-29 05:17:00,69.4,65.0,29.69,SE,138,5.0,10.0,86,0.00,,,0.00,Wunderground v.1.15,2013-01-29 11:17:00,
2013-01-29 05:19:00,69.4,65.0,29.69,SSE,168,5.0,10.0,86,0.00,,,0.00,Wunderground v.1.15,2013-01-29 11:19:00,
2013-01-29 05:21:00,69.3,64.9,29.69,South,191,5.0,10.0,86,0.00,,,0.00,Wunderground v.1.15,2013-01-29 11:21:00,
2013-01-29 05:22:00,69.3,64.9,29.69,South,175,5.0,8.0,86,0.00,,,0.00,Wunderground v.1.15,2013-01-29 11:22:00,
2013-01-29 05:27:00,69.4,65.0,29.69,SE,128,5.0,8.0,86,0.00,,,0.00,Wunderground v.1.15,2013-01-29 11:27:00,
2013-01-29 05:28:00,69.4,65.0,29.69,SSE,148,5.0,8.0,86,0.00,,,0.00,Wunderground v.1.15,2013-01-29 11:28:00,
2013-01-29 05:32:00,69.3,64.9,29.68,SSE,147,5.0,10.0,86,0.00,,,0.00,Wunderground v.1.15,2013-01-29 11:32:00,
2013-01-29 05:33:00,69.4,65.0,29.68,ESE,121,5.0,10.0,86,0.00,,,0.00,Wunderground v.1.15,2013-01-29 11:33:00,
2013-01-29 05:34:00,69.4,65.0,29.68,SSE,148,6.0,10.0,86,0.00,,,0.00,Wunderground v.1.15,2013-01-29 11:34:00,
2013-01-29 05:35:00,69.4,65.0,29.68,SSE,168,6.0,10.0,86,0.00,,,0.00,Wunderground v.1.15,2013-01-29 11:35:00,
2013-01-29 05:38:00,69.3,64.9,29.68,SSE,161,6.0,10.0,86,0.00,,,0.00,Wunderground v.1.15,2013-01-29 11:38:00,
2013-01-29 05:39:00,69.3,64.9,29.68,SSE,161,6.0,10.0,86,0.00,,,0.00,Wunderground v.1.15,2013-01-29 11:39:00,
2013-01-29 05:41:00,69.3,65.3,29.68,SSE,148,6.0,10.0,87,0.00,,,0.00,Wunderground v.1.15,2013-01-29 11:41:00,
2013-01-29 05:43:00,69.3,65.3,29.68,SE,126,6.0,10.0,87,0.00,,,0.00,Wunderground v.1.15,2013-01-29 11:43:00,
2013-01-29 05:44:00,69.3,65.3,29.68,South,176,6.0,10.0,87,0.00,,,0.00,Wunderground v.1.15,2013-01-29 11:44:00,
2013-01-29 05:46:00,69.3,64.9,29.67,SSE,150,6.0,10.0,86,0.00,,,0.00,Wunderground v.1.15,2013-01-29 11:46:00,
2013-01-29 05:47:00,69.4,65.0,29.67,SSE,155,7.0,10.0,86,0.00,,,0.00,Wunderground v.1.15,2013-01-29 11:47:00,
2013-01-29 05:48:00,69.4,65.0,29.67,SSE,157,7.0,10.0,86,0.00,,,0.00,Wunderground v.1.15,2013-01-29 11:48:00,
2013-01-29 05:51:00,69.4,65.0,29.67,SE,127,7.0,8.0,86,0.00,,,0.00,Wunderground v.1.15,2013-01-29 11:51:00,
2013-01-29 05:53:00,69.3,64.9,29.67,SE,145,6.0,8.0,86,0.00,,,0.00,Wunderground v.1.15,2013-01-29 11:53:00,
2013-01-29 05:55:00,69.3,65.3,29.67,SSE,147,6.0,8.0,87,0.00,,,0.00,Wunderground v.1.15,2013-01-29 11:55:00,
2013-01-29 05:57:00,69.3,65.3,29.67,SE,141,6.0,8.0,87,0.00,,,0.00,Wunderground v.1.15,2013-01-29 11:57:00,
2013-01-29 05:59:00,69.3,65.3,29.67,SSE,152,5.0,8.0,87,0.00,,,0.00,Wunderground v.1.15,2013-01-29 11:59:00,
2013-01-29 06:01:00,69.3,65.3,29.67,SE,136,5.0,5.0,87,0.00,,,0.00,Wunderground v.1.15,2013-01-29 12:01:00,
2013-01-29 06:02:00,69.3,65.3,29.67,South,174,5.0,5.0,87,0.00,,,0.00,Wunderground v.1.15,2013-01-29 12:02:00,
2013-01-29 06:04:00,69.3,65.3,29.67,SSE,168,4.0,7.0,87,0.00,,,0.00,Wunderground v.1.15,2013-01-29 12:04:00,
2013-01-29 06:06:00,69.3,65.3,29.67,SSE,152,5.0,7.0,87,0.00,,,0.00,Wunderground v.1.15,2013-01-29 12:06:00,
2013-01-29 06:08:00,69.3,65.3,29.67,SSE,162,5.0,7.0,87,0.00,,,0.00,Wunderground v.1.15,2013-01-29 12:08:00,
2013-01-29 06:09:00,69.1,65.1,29.67,SSE,160,5.0,7.0,87,0.00,,,0.00,Wunderground v.1.15,2013-01-29 12:09:00,
2013-01-29 06:11:00,69.1,65.1,29.67,SE,145,5.0,7.0,87,0.00,,,0.00,Wunderground v.1.15,2013-01-29 12:11:00,
2013-01-29 06:13:00,69.1,65.4,29.67,SE,138,6.0,8.0,88,0.00,,,0.00,Wunderground v.1.15,2013-01-29 12:13:00,
2013-01-29 06:15:00,69.1,65.4,29.67,SE,134,7.0,10.0,88,0.00,,,0.00,Wunderground v.1.15,2013-01-29 12:15:00,
2013-01-29 06:19:00,69.1,65.4,29.66,SSE,152,6.0,10.0,88,0.00,,,0.00,Wunderground v.1.15,2013-01-29 12:19:00,
2013-01-29 06:21:00,68.9,65.2,29.66,SE,131,6.0,10.0,88,0.00,,,0.00,Wunderground v.1.15,2013-01-29 12:21:00,
2013-01-29 06:23:00,68.9,65.2,29.66,SSE,160,5.0,6.0,88,0.00,,,0.00,Wunderground v.1.15,2013-01-29 12:23:00,
2013-01-29 06:26:00,68.9,65.2,29.66,SSE,157,4.0,11.0,88,0.00,,,0.00,Wunderground v.1.15,2013-01-29 12:26:00,
2013-01-29 06:28:00,68.9,65.2,29.66,ESE,123,5.0,11.0,88,0.00,,,0.00,Wunderground v.1.15,2013-01-29 12:28:00,
2013-01-29 06:29:00,68.9,65.2,29.66,SSE,162,5.0,11.0,88,0.00,,,0.00,Wunderground v.1.15,2013-01-29 12:29:00,
2013-01-29 06:33:00,68.9,65.5,29.66,SE,138,6.0,7.0,89,0.00,,,0.00,Wunderground v.1.15,2013-01-29 12:33:00,
2013-01-29 06:34:00,68.9,65.5,29.66,SSE,150,6.0,7.0,89,0.00,,,0.00,Wunderground v.1.15,2013-01-29 12:34:00,
2013-01-29 06:35:00,68.9,65.5,29.66,SSE,151,6.0,7.0,89,0.00,,,0.00,Wunderground v.1.15,2013-01-29 12:35:00,
2013-01-29 06:36:00,68.9,65.5,29.66,SSE,160,6.0,7.0,89,0.00,,,0.00,Wunderground v.1.15,2013-01-29 12:36:00,
2013-01-29 06:39:00,68.9,65.5,29.66,SSE,151,6.0,10.0,89,0.00,,,0.00,Wunderground v.1.15,2013-01-29 12:39:00,
2013-01-29 06:41:00,68.9,65.5,29.66,South,171,6.0,6.0,89,0.00,,,0.00,Wunderground v.1.15,2013-01-29 12:41:00,
2013-01-29 06:42:00,68.8,65.4,29.66,SSE,155,6.0,6.0,89,0.00,,,0.00,Wunderground v.1.15,2013-01-29 12:42:00,
2013-01-29 06:43:00,68.8,65.4,29.66,SE,141,6.0,10.0,89,0.00,,,0.00,Wunderground v.1.15,2013-01-29 12:43:00,
2013-01-29 06:44:00,68.8,65.4,29.66,SE,137,6.0,10.0,89,0.00,,,0.00,Wunderground v.1.15,2013-01-29 12:44:00,
2013-01-29 06:47:00,68.8,65.4,29.66,SE,141,6.0,12.0,89,0.00,,,0.00,Wunderground v.1.15,2013-01-29 12:47:00,
2013-01-29 06:49:00,68.8,65.4,29.66,South,176,6.0,12.0,89,0.00,,,0.00,Wunderground v.1.15,2013-01-29 12:49:00,
2013-01-29 06:52:00,68.8,65.4,29.66,ESE,123,7.0,7.0,89,0.00,,,0.00,Wunderground v.1.15,2013-01-29 12:52:00,
2013-01-29 06:53:00,68.8,65.4,29.66,East,100,7.0,7.0,89,0.00,,,0.00,Wunderground v.1.15,2013-01-29 12:53:00,
2013-01-29 06:57:00,68.8,65.4,29.66,SE,145,6.0,7.0,89,0.00,,,0.00,Wunderground v.1.15,2013-01-29 12:57:00,
2013-01-29 06:58:00,68.8,65.4,29.66,SE,124,6.0,7.0,89,0.00,,,0.00,Wunderground v.1.15,2013-01-29 12:58:00,
2013-01-29 07:03:00,68.8,65.4,29.65,SSE,151,5.0,10.0,89,0.00,,,0.00,Wunderground v.1.15,2013-01-29 13:03:00,
2013-01-29 07:04:00,68.8,65.4,29.65,SSE,154,5.0,10.0,89,0.00,,,0.00,Wunderground v.1.15,2013-01-29 13:04:00,
2013-01-29 07:06:00,68.8,65.4,29.65,SSE,147,6.0,10.0,89,0.00,,,0.00,Wunderground v.1.15,2013-01-29 13:06:00,
2013-01-29 07:11:00,68.8,65.4,29.65,SE,133,6.0,6.0,89,0.00,,,0.00,Wunderground v.1.15,2013-01-29 13:11:00,
2013-01-29 07:12:00,68.8,65.4,29.65,SE,145,6.0,6.0,89,0.00,,,0.00,Wunderground v.1.15,2013-01-29 13:12:00,
2013-01-29 07:13:00,68.8,65.4,29.65,SSE,158,6.0,7.0,89,0.00,,,0.00,Wunderground v.1.15,2013-01-29 13:13:00,
2013-01-29 07:14:00,68.8,65.4,29.65,SE,134,6.0,12.0,89,0.00,,,0.00,Wunderground v.1.15,2013-01-29 13:14:00,
2013-01-29 07:17:00,68.8,65.4,29.66,SSE,147,6.0,12.0,89,0.00,,,0.00,Wunderground v.1.15,2013-01-29 13:17:00,
2013-01-29 07:19:00,68.8,65.4,29.66,SE,144,6.0,12.0,89,0.00,,,0.00,Wunderground v.1.15,2013-01-29 13:19:00,
2013-01-29 07:21:00,68.8,65.4,29.66,SSE,157,6.0,6.0,89,0.00,,,0.00,Wunderground v.1.15,2013-01-29 13:21:00,
2013-01-29 07:23:00,68.8,65.4,29.66,SE,131,7.0,8.0,89,0.00,,,0.00,Wunderground v.1.15,2013-01-29 13:23:00,
2013-01-29 07:24:00,68.9,65.5,29.66,ESE,120,7.0,8.0,89,0.00,,,0.00,Wunderground v.1.15,2013-01-29 13:24:00,
2013-01-29 07:26:00,68.9,65.5,29.66,SE,124,6.0,8.0,89,0.00,,,0.00,Wunderground v.1.15,2013-01-29 13:26:00,
2013-01-29 07:27:00,68.9,65.5,29.66,SSE,147,6.0,8.0,89,0.00,,,0.00,Wunderground v.1.15,2013-01-29 13:27:00,
2013-01-29 07:29:00,68.9,65.2,29.66,SE,137,7.0,11.0,88,0.00,,,0.00,Wunderground v.1.15,2013-01-29 13:29:00,
2013-01-29 07:32:00,68.9,65.2,29.65,SSE,160,7.0,12.0,88,0.00,,,0.00,Wunderground v.1.15,2013-01-29 13:32:00,
2013-01-29 07:35:00,69.1,65.4,29.65,SSE,165,8.0,12.0,88,0.00,,,0.00,Wunderground v.1.15,2013-01-29 13:35:00,
2013-01-29 07:37:00,69.1,65.4,29.65,ESE,121,7.0,12.0,88,0.00,,,0.00,Wunderground v.1.15,2013-01-29 13:37:00,
2013-01-29 07:38:00,69.1,65.4,29.65,SE,140,7.0,12.0,88,0.00,,,0.00,Wunderground v.1.15,2013-01-29 13:38:00,
2013-01-29 07:41:00,69.1,65.4,29.65,SSE,155,7.0,12.0,88,0.00,,,0.00,Wunderground v.1.15,2013-01-29 13:41:00,
2013-01-29 07:42:00,69.1,65.4,29.65,SSE,164,8.0,13.0,88,0.00,,,0.00,Wunderground v.1.15,2013-01-29 13:42:00,
2013-01-29 07:45:00,69.1,65.4,29.65,SE,137,8.0,13.0,88,0.00,,,0.00,Wunderground v.1.15,2013-01-29 13:45:00,
2013-01-29 07:47:00,69.1,65.4,29.64,SE,144,8.0,13.0,88,0.00,,,0.00,Wunderground v.1.15,2013-01-29 13:47:00,
2013-01-29 07:49:00,69.1,65.4,29.64,SE,145,8.0,13.0,88,0.00,,,0.00,Wunderground v.1.15,2013-01-29 13:49:00,
2013-01-29 07:52:00,69.1,65.1,29.64,SSE,158,7.0,9.0,87,0.00,,,0.00,Wunderground v.1.15,2013-01-29 13:52:00,
2013-01-29 07:53:00,69.1,65.1,29.64,South,172,7.0,9.0,87,0.00,,,0.00,Wunderground v.1.15,2013-01-29 13:53:00,
2013-01-29 07:54:00,69.1,65.1,29.64,South,185,7.0,16.0,87,0.00,,,0.00,Wunderground v.1.15,2013-01-29 13:54:00,
2013-01-29 07:58:00,69.1,65.1,29.64,SSE,148,8.0,16.0,87,0.00,,,0.00,Wunderground v.1.15,2013-01-29 13:58:00,
2013-01-29 07:59:00,69.1,65.1,29.64,SE,143,8.0,16.0,87,0.00,,,0.00,Wunderground v.1.15,2013-01-29 13:59:00,
2013-01-29 08:01:00,69.1,65.1,29.64,SSE,162,8.0,8.0,87,0.00,,,0.00,Wunderground v.1.15,2013-01-29 14:01:00,
2013-01-29 08:02:00,69.1,65.1,29.64,SSE,158,8.0,10.0,87,0.00,,,0.00,Wunderground v.1.15,2013-01-29 14:02:00,
2013-01-29 08:06:00,69.1,65.4,29.64,ESE,119,7.0,11.0,88,0.00,,,0.00,Wunderground v.1.15,2013-01-29 14:06:00,
2013-01-29 08:07:00,69.1,65.4,29.64,SE,136,6.0,11.0,88,0.00,,,0.00,Wunderground v.1.15,2013-01-29 14:07:00,
2013-01-29 08:09:00,69.1,65.4,29.64,South,185,7.0,11.0,88,0.00,,,0.00,Wunderground v.1.15,2013-01-29 14:09:00,
2013-01-29 08:11:00,69.1,65.4,29.64,SE,136,7.0,16.0,88,0.00,,,0.00,Wunderground v.1.15,2013-01-29 14:11:00,
2013-01-29 08:12:00,69.1,65.4,29.64,SE,136,7.0,16.0,88,0.00,,,0.00,Wunderground v.1.15,2013-01-29 14:12:00,
2013-01-29 08:13:00,69.1,65.4,29.64,SSE,161,7.0,16.0,88,0.00,,,0.00,Wunderground v.1.15,2013-01-29 14:13:00,
2013-01-29 08:15:00,69.1,65.4,29.64,ESE,121,8.0,16.0,88,0.00,,,0.00,Wunderground v.1.15,2013-01-29 14:15:00,
2013-01-29 08:18:00,69.1,65.4,29.64,South,171,8.0,16.0,88,0.00,,,0.00,Wunderground v.1.15,2013-01-29 14:18:00,
2013-01-29 08:19:00,69.1,65.4,29.64,South,181,8.0,16.0,88,0.00,,,0.00,Wunderground v.1.15,2013-01-29 14:19:00,
2013-01-29 08:23:00,69.1,65.4,29.64,SE,136,7.0,8.0,88,0.00,,,0.00,Wunderground v.1.15,2013-01-29 14:23:00,
2013-01-29 08:24:00,69.1,65.4,29.64,South,171,7.0,8.0,88,0.00,,,0.00,Wunderground v.1.15,2013-01-29 14:24:00,
2013-01-29 08:25:00,69.1,65.4,29.64,SSE,168,7.0,8.0,88,0.00,,,0.00,Wunderground v.1.15,2013-01-29 14:25:00,
2013-01-29 08:27:00,69.1,65.4,29.64,South,176,7.0,8.0,88,0.00,,,0.00,Wunderground v.1.15,2013-01-29 14:27:00,
2013-01-29 08:31:00,69.1,65.4,29.63,South,188,7.0,7.0,88,0.00,,,0.00,Wunderground v.1.15,2013-01-29 14:31:00,
2013-01-29 08:32:00,69.1,65.4,29.63,SSE,165,7.0,7.0,88,0.00,,,0.00,Wunderground v.1.15,2013-01-29 14:32:00,
2013-01-29 08:37:00,69.1,65.1,29.63,South,171,7.0,12.0,87,0.00,,,0.00,Wunderground v.1.15,2013-01-29 14:37:00,
2013-01-29 08:38:00,69.1,65.4,29.63,SSE,158,8.0,12.0,88,0.00,,,0.00,Wunderground v.1.15,2013-01-29 14:38:00,
2013-01-29 08:39:00,69.1,65.4,29.63,South,181,7.0,12.0,88,0.00,,,0.00,Wunderground v.1.15,2013-01-29 14:39:00,
2013-01-29 08:41:00,69.1,65.1,29.63,South,169,7.0,7.0,87,0.00,,,0.00,Wunderground v.1.15,2013-01-29 14:41:00,
2013-01-29 08:43:00,69.1,65.1,29.63,SSE,168,7.0,7.0,87,0.00,,,0.00,Wunderground v.1.15,2013-01-29 14:43:00,
2013-01-29 08:46:00,69.1,65.1,29.62,SSE,147,7.0,11.0,87,0.00,,,0.00,Wunderground v.1.15,2013-01-29 14:46:00,
2013-01-29 08:48:00,69.1,65.1,29.62,SE,136,7.0,11.0,87,0.00,,,0.00,Wunderground v.1.15,2013-01-29 14:48:00,
2013-01-29 08:51:00,69.3,65.3,29.62,ESE,121,6.0,6.0,87,0.00,,,0.00,Wunderground v.1.15,2013-01-29 14:51:00,
2013-01-29 08:56:00,69.3,65.3,29.62,SSE,154,7.0,12.0,87,0.00,,,0.00,Wunderground v.1.15,2013-01-29 14:56:00,
2013-01-29 08:57:00,69.3,65.3,29.62,SE,134,7.0,12.0,87,0.00,,,0.00,Wunderground v.1.15,2013-01-29 14:57:00,
2013-01-29 09:01:00,69.3,65.3,29.61,SSE,155,7.0,7.0,87,0.00,,,0.00,Wunderground v.1.15,2013-01-29 15:01:00,
2013-01-29 09:02:00,69.3,65.3,29.61,SSE,164,7.0,7.0,87,0.00,,,0.00,Wunderground v.1.15,2013-01-29 15:02:00,
2013-01-29 09:03:00,69.3,65.3,29.61,South,182,7.0,7.0,87,0.00,,,0.00,Wunderground v.1.15,2013-01-29 15:03:00,
2013-01-29 09:06:00,69.3,65.3,29.61,SSE,160,7.0,12.0,87,0.00,,,0.00,Wunderground v.1.15,2013-01-29 15:06:00,
2013-01-29 09:08:00,69.3,65.3,29.61,ESE,109,7.0,12.0,87,0.00,,,0.00,Wunderground v.1.15,2013-01-29 15:08:00,
2013-01-29 09:11:00,69.3,65.3,29.61,SSW,208,6.0,6.0,87,0.00,,,0.00,Wunderground v.1.15,2013-01-29 15:11:00,
2013-01-29 09:13:00,69.3,65.3,29.61,South,191,5.0,10.0,87,0.00,,,0.00,Wunderground v.1.15,2013-01-29 15:13:00,
2013-01-29 09:15:00,69.3,65.3,29.61,South,182,5.0,10.0,87,0.00,,,0.00,Wunderground v.1.15,2013-01-29 15:15:00,
2013-01-29 09:18:00,69.3,65.3,29.63,South,189,6.0,10.0,87,0.00,,,0.00,Wunderground v.1.15,2013-01-29 15:18:00,
2013-01-29 09:21:00,69.3,65.3,29.63,South,181,7.0,10.0,87,0.00,,,0.00,Wunderground v.1.15,2013-01-29 15:21:00,
2013-01-29 09:23:00,69.3,65.3,29.63,ESE,121,7.0,9.0,87,0.00,,,0.00,Wunderground v.1.15,2013-01-29 15:23:00,
2013-01-29 09:24:00,69.3,65.3,29.63,South,174,8.0,9.0,87,0.00,,,0.00,Wunderground v.1.15,2013-01-29 15:24:00,
2013-01-29 09:25:00,69.3,65.3,29.63,ESE,120,8.0,9.0,87,0.00,,,0.00,Wunderground v.1.15,2013-01-29 15:25:00,
2013-01-29 09:29:00,69.3,65.3,29.63,SSE,154,7.0,9.0,87,0.00,,,0.00,Wunderground v.1.15,2013-01-29 15:29:00,
2013-01-29 09:31:00,69.4,65.4,29.63,South,175,7.0,7.0,87,0.00,,,0.00,Wunderground v.1.15,2013-01-29 15:31:00,
2013-01-29 09:32:00,69.4,65.4,29.63,South,182,7.0,7.0,87,0.00,,,0.00,Wunderground v.1.15,2013-01-29 15:32:00,
2013-01-29 09:36:00,69.4,65.0,29.63,South,175,7.0,12.0,86,0.00,,,0.00,Wunderground v.1.15,2013-01-29 15:36:00,
2013-01-29 09:38:00,69.4,65.0,29.63,South,189,8.0,12.0,86,0.00,,,0.00,Wunderground v.1.15,2013-01-29 15:38:00,
2013-01-29 09:39:00,69.4,65.0,29.63,South,191,8.0,12.0,86,0.00,,,0.00,Wunderground v.1.15,2013-01-29 15:39:00,
2013-01-29 09:44:00,69.4,65.0,29.63,South,182,7.0,14.0,86,0.00,,,0.00,Wunderground v.1.15,2013-01-29 15:44:00,
2013-01-29 09:45:00,69.4,65.0,29.63,South,182,7.0,14.0,86,0.00,,,0.00,Wunderground v.1.15,2013-01-29 15:45:00,
2013-01-29 09:46:00,69.4,65.0,29.63,SSW,193,7.0,14.0,86,0.00,,,0.00,Wunderground v.1.15,2013-01-29 15:46:00,
2013-01-29 09:47:00,69.4,65.0,29.63,South,178,6.0,14.0,86,0.00,,,0.00,Wunderground v.1.15,2013-01-29 15:47:00,
2013-01-29 09:51:00,69.6,65.2,29.63,SSW,192,6.0,14.0,86,0.00,,,0.00,Wunderground v.1.15,2013-01-29 15:51:00,
2013-01-29 09:53:00,69.6,65.2,29.63,SSW,202,6.0,13.0,86,0.00,,,0.00,Wunderground v.1.15,2013-01-29 15:53:00,
2013-01-29 09:55:00,69.6,64.9,29.63,SW,234,6.0,13.0,85,0.00,,,0.00,Wunderground v.1.15,2013-01-29 15:55:00,
2013-01-29 09:56:00,69.6,64.9,29.63,SE,141,6.0,16.0,85,0.00,,,0.00,Wunderground v.1.15,2013-01-29 15:56:00,
2013-01-29 10:01:00,69.8,65.1,29.63,SSW,205,7.0,7.0,85,0.00,,,0.00,Wunderground v.1.15,2013-01-29 16:01:00,
2013-01-29 10:02:00,69.8,65.1,29.63,SSW,198,7.0,7.0,85,0.00,,,0.00,Wunderground v.1.15,2013-01-29 16:02:00,
2013-01-29 10:05:00,69.8,65.1,29.63,SSW,209,6.0,8.0,85,0.00,,,0.00,Wunderground v.1.15,2013-01-29 16:05:00,
2013-01-29 10:08:00,69.8,65.1,29.63,SSW,198,5.0,8.0,85,0.00,,,0.00,Wunderground v.1.15,2013-01-29 16:08:00,
2013-01-29 10:11:00,69.9,65.2,29.63,South,174,5.0,10.0,85,0.00,,,0.00,Wunderground v.1.15,2013-01-29 16:11:00,
2013-01-29 10:12:00,69.9,65.2,29.63,SSW,202,5.0,10.0,85,0.00,,,0.00,Wunderground v.1.15,2013-01-29 16:12:00,
2013-01-29 10:14:00,70.1,65.0,29.63,South,186,5.0,10.0,84,0.00,,,0.00,Wunderground v.1.15,2013-01-29 16:14:00,
2013-01-29 10:19:00,70.3,64.9,29.63,South,186,6.0,13.0,83,0.00,,,0.00,Wunderground v.1.15,2013-01-29 16:19:00,
2013-01-29 10:20:00,70.3,64.9,29.63,South,184,6.0,6.0,83,0.00,,,0.00,Wunderground v.1.15,2013-01-29 16:20:00,
2013-01-29 10:22:00,70.4,65.0,29.63,SSW,198,6.0,9.0,83,0.00,,,0.00,Wunderground v.1.15,2013-01-29 16:22:00,
2013-01-29 10:24:00,70.4,65.0,29.63,SSW,203,6.0,13.0,83,0.00,,,0.00,Wunderground v.1.15,2013-01-29 16:24:00,
2013-01-29 10:27:00,70.6,64.8,29.63,South,189,7.0,13.0,82,0.00,,,0.00,Wunderground v.1.15,2013-01-29 16:27:00,
2013-01-29 10:29:00,70.6,64.8,29.63,South,185,7.0,13.0,82,0.00,,,0.00,Wunderground v.1.15,2013-01-29 16:29:00,
2013-01-29 10:30:00,70.8,65.0,29.62,SSE,167,6.0,8.0,82,0.00,,,0.00,Wunderground v.1.15,2013-01-29 16:30:00,
2013-01-29 10:34:00,70.8,65.0,29.62,SSW,200,7.0,9.0,82,0.00,,,0.00,Wunderground v.1.15,2013-01-29 16:34:00,
2013-01-29 10:35:00,70.9,65.1,29.62,SW,226,6.0,9.0,82,0.00,,,0.00,Wunderground v.1.15,2013-01-29 16:35:00,
2013-01-29 10:37:00,70.9,65.1,29.62,SSW,212,6.0,9.0,82,0.00,,,0.00,Wunderground v.1.15,2013-01-29 16:37:00,
2013-01-29 10:40:00,71.1,65.0,29.62,SSW,212,7.0,7.0,81,0.00,,,0.00,Wunderground v.1.15,2013-01-29 16:40:00,
2013-01-29 10:42:00,71.1,65.0,29.62,South,178,7.0,7.0,81,0.00,,,0.00,Wunderground v.1.15,2013-01-29 16:42:00,
2013-01-29 10:46:00,71.3,64.8,29.61,South,185,6.0,8.0,80,0.00,,,0.00,Wunderground v.1.15,2013-01-29 16:46:00,
2013-01-29 10:47:00,71.5,65.4,29.61,SW,216,6.0,11.0,81,0.00,,,0.00,Wunderground v.1.15,2013-01-29 16:47:00,
2013-01-29 10:48:00,71.5,65.4,29.61,South,185,6.0,11.0,81,0.00,,,0.00,Wunderground v.1.15,2013-01-29 16:48:00,
2013-01-29 10:51:00,71.6,65.1,29.61,SSE,167,6.0,7.0,80,0.00,,,0.00,Wunderground v.1.15,2013-01-29 16:51:00,
2013-01-29 10:52:00,71.8,64.9,29.61,SSW,200,6.0,7.0,79,0.00,,,0.00,Wunderground v.1.15,2013-01-29 16:52:00,
2013-01-29 10:53:00,71.8,64.9,29.61,South,185,6.0,7.0,79,0.00,,,0.00,Wunderground v.1.15,2013-01-29 16:53:00,
2013-01-29 10:54:00,71.8,64.9,29.61,South,179,6.0,7.0,79,0.00,,,0.00,Wunderground v.1.15,2013-01-29 16:54:00,
2013-01-29 10:58:00,72.0,65.1,29.61,SW,216,6.0,10.0,79,0.00,,,0.00,Wunderground v.1.15,2013-01-29 16:58:00,
2013-01-29 11:01:00,72.0,65.1,29.61,SSW,208,6.0,7.0,79,0.00,,,0.00,Wunderground v.1.15,2013-01-29 17:01:00,
2013-01-29 11:04:00,72.0,65.1,29.61,SSW,209,5.0,10.0,79,0.00,,,0.00,Wunderground v.1.15,2013-01-29 17:04:00,
2013-01-29 11:05:00,72.0,65.1,29.61,South,191,6.0,10.0,79,0.00,,,0.00,Wunderground v.1.15,2013-01-29 17:05:00,
2013-01-29 11:06:00,72.1,65.2,29.61,SW,229,6.0,10.0,79,0.00,,,0.00,Wunderground v.1.15,2013-01-29 17:06:00,
2013-01-29 11:09:00,72.0,65.1,29.61,SSW,199,7.0,10.0,79,0.00,,,0.00,Wunderground v.1.15,2013-01-29 17:09:00,
2013-01-29 11:11:00,72.0,65.1,29.61,SSW,209,7.0,9.0,79,0.00,,,0.00,Wunderground v.1.15,2013-01-29 17:11:00,
2013-01-29 11:13:00,72.0,65.1,29.61,South,179,7.0,9.0,79,0.00,,,0.00,Wunderground v.1.15,2013-01-29 17:13:00,
2013-01-29 11:14:00,72.1,65.2,29.61,SSW,192,7.0,9.0,79,0.00,,,0.00,Wunderground v.1.15,2013-01-29 17:14:00,
2013-01-29 11:16:00,72.1,65.2,29.61,SSW,192,6.0,9.0,79,0.00,,,0.00,Wunderground v.1.15,2013-01-29 17:16:00,
2013-01-29 11:18:00,72.1,65.2,29.61,SSW,195,6.0,9.0,79,0.00,,,0.00,Wunderground v.1.15,2013-01-29 17:18:00,
2013-01-29 11:21:00,72.1,64.9,29.61,SSW,213,5.0,8.0,78,0.00,,,0.00,Wunderground v.1.15,2013-01-29 17:21:00,
2013-01-29 11:23:00,72.1,64.9,29.61,SSW,200,5.0,8.0,78,0.00,,,0.00,Wunderground v.1.15,2013-01-29 17:23:00,
2013-01-29 11:26:00,72.3,65.1,29.61,South,179,5.0,8.0,78,0.00,,,0.00,Wunderground v.1.15,2013-01-29 17:26:00,
2013-01-29 11:28:00,72.5,65.2,29.61,South,189,5.0,8.0,78,0.00,,,0.00,Wunderground v.1.15,2013-01-29 17:28:00,
2013-01-29 11:31:00,72.8,65.2,29.59,SSE,165,4.0,7.0,77,0.00,,,0.00,Wunderground v.1.15,2013-01-29 17:31:00,
2013-01-29 11:33:00,73.2,65.6,29.59,South,188,4.0,8.0,77,0.00,,,0.00,Wunderground v.1.15,2013-01-29 17:33:00,
2013-01-29 11:35:00,73.3,64.9,29.59,SSW,192,4.0,11.0,75,0.00,,,0.00,Wunderground v.1.15,2013-01-29 17:35:00,
2013-01-29 11:36:00,73.3,64.9,29.59,SSE,162,5.0,11.0,75,0.00,,,0.00,Wunderground v.1.15,2013-01-29 17:36:00,
2013-01-29 11:38:00,73.7,65.3,29.59,South,169,6.0,11.0,75,0.00,,,0.00,Wunderground v.1.15,2013-01-29 17:38:00,
2013-01-29 11:41:00,74.0,64.8,29.59,SSW,202,7.0,9.0,73,0.00,,,0.00,Wunderground v.1.15,2013-01-29 17:41:00,
2013-01-29 11:42:00,74.4,65.2,29.59,South,184,7.0,9.0,73,0.00,,,0.00,Wunderground v.1.15,2013-01-29 17:42:00,
2013-01-29 11:47:00,75.3,65.2,29.57,SW,236,7.0,9.0,71,0.00,,,0.00,Wunderground v.1.15,2013-01-29 17:47:00,
2013-01-29 11:48:00,75.4,64.9,29.57,SSW,195,7.0,9.0,70,0.00,,,0.00,Wunderground v.1.15,2013-01-29 17:48:00,
2013-01-29 11:52:00,75.4,65.3,29.57,South,185,7.0,11.0,71,0.00,,,0.00,Wunderground v.1.15,2013-01-29 17:52:00,
2013-01-29 11:54:00,75.4,64.5,29.57,South,191,6.0,11.0,69,0.00,,,0.00,Wunderground v.1.15,2013-01-29 17:54:00,
2013-01-29 11:57:00,75.4,64.5,29.57,SSE,165,7.0,13.0,69,0.00,,,0.00,Wunderground v.1.15,2013-01-29 17:57:00,
2013-01-29 11:58:00,75.4,64.5,29.57,South,171,8.0,19.0,69,0.00,,,0.00,Wunderground v.1.15,2013-01-29 17:58:00,
2013-01-29 11:59:00,75.3,64.4,29.57,South,185,9.0,19.0,69,0.00,,,0.00,Wunderground v.1.15,2013-01-29 17:59:00,
2013-01-29 12:02:00,75.3,64.4,29.56,SE,140,9.0,13.0,69,0.00,,,0.00,Wunderground v.1.15,2013-01-29 18:02:00,
2013-01-29 12:05:00,75.4,64.9,29.56,South,188,10.0,13.0,70,0.00,,,0.00,Wunderground v.1.15,2013-01-29 18:05:00,
2013-01-29 12:08:00,75.6,65.1,29.56,South,186,9.0,13.0,70,0.00,,,0.00,Wunderground v.1.15,2013-01-29 18:08:00,
2013-01-29 12:09:00,75.6,64.7,29.56,SW,217,8.0,13.0,69,0.00,,,0.00,Wunderground v.1.15,2013-01-29 18:09:00,
2013-01-29 12:11:00,75.6,64.7,29.56,SW,219,7.0,16.0,69,0.00,,,0.00,Wunderground v.1.15,2013-01-29 18:11:00,
2013-01-29 12:15:00,75.8,64.5,29.56,SSW,199,8.0,16.0,68,0.00,,,0.00,Wunderground v.1.15,2013-01-29 18:15:00,
2013-01-29 12:16:00,75.8,64.5,29.56,SSW,195,8.0,16.0,68,0.00,,,0.00,Wunderground v.1.15,2013-01-29 18:16:00,
2013-01-29 12:17:00,76.0,64.7,29.56,SSW,202,9.0,16.0,68,0.00,,,0.00,Wunderground v.1.15,2013-01-29 18:17:00,
2013-01-29 12:21:00,76.1,64.3,29.56,SSW,208,9.0,9.0,67,0.00,,,0.00,Wunderground v.1.15,2013-01-29 18:21:00,
2013-01-29 12:22:00,76.1,63.9,29.56,South,179,9.0,13.0,66,0.00,,,0.00,Wunderground v.1.15,2013-01-29 18:22:00,
2013-01-29 12:26:00,76.3,64.1,29.56,SSW,213,9.0,17.0,66,0.00,,,0.00,Wunderground v.1.15,2013-01-29 18:26:00,
2013-01-29 12:27:00,76.3,64.1,29.56,SW,215,9.0,17.0,66,0.00,,,0.00,Wunderground v.1.15,2013-01-29 18:27:00,
2013-01-29 12:29:00,76.5,63.9,29.56,South,185,9.0,17.0,65,0.00,,,0.00,Wunderground v.1.15,2013-01-29 18:29:00,
2013-01-29 12:31:00,76.5,63.4,29.54,South,169,10.0,13.0,64,0.00,,,0.00,Wunderground v.1.15,2013-01-29 18:31:00,
2013-01-29 12:32:00,76.7,64.0,29.54,SSW,198,9.0,13.0,65,0.00,,,0.00,Wunderground v.1.15,2013-01-29 18:32:00,
2013-01-29 12:34:00,76.7,63.6,29.54,SSW,208,9.0,13.0,64,0.00,,,0.00,Wunderground v.1.15,2013-01-29 18:34:00,
2013-01-29 12:36:00,76.8,63.7,29.54,SW,215,9.0,16.0,64,0.00,,,0.00,Wunderground v.1.15,2013-01-29 18:36:00,
2013-01-29 12:37:00,76.8,63.2,29.54,South,169,10.0,16.0,63,0.00,,,0.00,Wunderground v.1.15,2013-01-29 18:37:00,
2013-01-29 12:38:00,76.8,63.2,29.54,SW,215,10.0,16.0,63,0.00,,,0.00,Wunderground v.1.15,2013-01-29 18:38:00,
2013-01-29 12:41:00,77.0,63.4,29.54,WSW,246,10.0,16.0,63,0.00,,,0.00,Wunderground v.1.15,2013-01-29 18:41:00,
2013-01-29 12:45:00,77.0,63.4,29.54,SSW,192,10.0,16.0,63,0.00,,,0.00,Wunderground v.1.15,2013-01-29 18:45:00,
2013-01-29 12:47:00,76.8,62.8,29.53,SW,217,10.0,16.0,62,0.00,,,0.00,Wunderground v.1.15,2013-01-29 18:47:00,
2013-01-29 12:48:00,76.7,62.7,29.53,SSW,212,9.0,16.0,62,0.00,,,0.00,Wunderground v.1.15,2013-01-29 18:48:00,
2013-01-29 12:51:00,76.5,63.4,29.53,South,179,9.0,9.0,64,0.00,,,0.00,Wunderground v.1.15,2013-01-29 18:51:00,
2013-01-29 12:52:00,76.5,63.0,29.53,South,171,9.0,14.0,63,0.00,,,0.00,Wunderground v.1.15,2013-01-29 18:52:00,
2013-01-29 12:57:00,76.5,62.5,29.53,SW,217,10.0,14.0,62,0.00,,,0.00,Wunderground v.1.15,2013-01-29 18:57:00,
2013-01-29 12:58:00,76.5,62.5,29.53,SW,217,10.0,14.0,62,0.00,,,0.00,Wunderground v.1.15,2013-01-29 18:58:00,
2013-01-29 13:01:00,76.7,62.7,29.51,SSE,162,10.0,10.0,62,0.00,,,0.00,Wunderground v.1.15,2013-01-29 19:01:00,
2013-01-29 13:02:00,76.8,62.3,29.51,SSW,208,10.0,10.0,61,0.00,,,0.00,Wunderground v.1.15,2013-01-29 19:02:00,
2013-01-29 13:05:00,77.2,62.7,29.51,SSW,208,9.0,16.0,61,0.00,,,0.00,Wunderground v.1.15,2013-01-29 19:05:00,
2013-01-29 13:06:00,77.2,62.7,29.51,SSW,195,10.0,20.0,61,0.00,,,0.00,Wunderground v.1.15,2013-01-29 19:06:00,
2013-01-29 13:07:00,77.4,62.9,29.51,SW,222,10.0,20.0,61,0.00,,,0.00,Wunderground v.1.15,2013-01-29 19:07:00,
2013-01-29 13:11:00,77.7,62.7,29.51,SW,232,10.0,14.0,60,0.00,,,0.00,Wunderground v.1.15,2013-01-29 19:11:00,
2013-01-29 13:14:00,77.9,62.9,29.51,SW,230,10.0,14.0,60,0.00,,,0.00,Wunderground v.1.15,2013-01-29 19:14:00,
2013-01-29 13:15:00,77.9,62.9,29.50,WSW,243,10.0,14.0,60,0.00,,,0.00,Wunderground v.1.15,2013-01-29 19:15:00,
2013-01-29 13:17:00,78.1,63.1,29.50,South,186,9.0,14.0,60,0.00,,,0.00,Wunderground v.1.15,2013-01-29 19:17:00,
2013-01-29 13:21:00,77.7,62.7,29.50,SSW,202,10.0,12.0,60,0.00,,,0.00,Wunderground v.1.15,2013-01-29 19:21:00,
2013-01-29 13:22:00,77.7,62.7,29.50,SSW,213,10.0,13.0,60,0.00,,,0.00,Wunderground v.1.15,2013-01-29 19:22:00,
2013-01-29 13:26:00,78.1,63.6,29.50,SSW,208,9.0,13.0,61,0.00,,,0.00,Wunderground v.1.15,2013-01-29 19:26:00,
2013-01-29 13:27:00,78.3,63.7,29.50,SW,226,8.0,13.0,61,0.00,,,0.00,Wunderground v.1.15,2013-01-29 19:27:00,
2013-01-29 13:29:00,78.3,62.8,29.50,SW,227,8.0,13.0,59,0.00,,,0.00,Wunderground v.1.15,2013-01-29 19:29:00,
2013-01-29 13:31:00,78.3,62.8,29.49,SW,232,8.0,16.0,59,0.00,,,0.00,Wunderground v.1.15,2013-01-29 19:31:00,
2013-01-29 13:32:00,78.5,63.0,29.49,SSE,164,8.0,16.0,59,0.00,,,0.00,Wunderground v.1.15,2013-01-29 19:32:00,
2013-01-29 13:33:00,78.5,63.5,29.49,South,178,8.0,16.0,60,0.00,,,0.00,Wunderground v.1.15,2013-01-29 19:33:00,
2013-01-29 13:36:00,78.8,62.8,29.49,SSW,200,8.0,19.0,58,0.00,,,0.00,Wunderground v.1.15,2013-01-29 19:36:00,
2013-01-29 13:37:00,78.8,62.3,29.49,SSW,208,9.0,19.0,57,0.00,,,0.00,Wunderground v.1.15,2013-01-29 19:37:00,
2013-01-29 13:38:00,78.6,62.1,29.49,SW,216,10.0,19.0,57,0.00,,,0.00,Wunderground v.1.15,2013-01-29 19:38:00,
2013-01-29 13:43:00,78.3,62.8,29.49,South,169,10.0,17.0,59,0.00,,,0.00,Wunderground v.1.15,2013-01-29 19:43:00,
2013-01-29 13:44:00,78.3,62.3,29.49,WSW,237,10.0,20.0,58,0.00,,,0.00,Wunderground v.1.15,2013-01-29 19:44:00,
2013-01-29 13:47:00,78.1,62.1,29.49,WSW,254,10.0,20.0,58,0.00,,,0.00,Wunderground v.1.15,2013-01-29 19:47:00,
2013-01-29 13:49:00,78.1,62.1,29.49,SSW,196,10.0,20.0,58,0.00,,,0.00,Wunderground v.1.15,2013-01-29 19:49:00,
2013-01-29 13:52:00,77.9,61.9,29.49,South,174,10.0,13.0,58,0.00,,,0.00,Wunderground v.1.15,2013-01-29 19:52:00,
2013-01-29 13:53:00,77.9,61.4,29.49,South,182,10.0,13.0,57,0.00,,,0.00,Wunderground v.1.15,2013-01-29 19:53:00,
2013-01-29 13:56:00,77.9,61.4,29.49,South,186,11.0,14.0,57,0.00,,,0.00,Wunderground v.1.15,2013-01-29 19:56:00,
2013-01-29 13:58:00,77.9,61.4,29.49,South,176,11.0,14.0,57,0.00,,,0.00,Wunderground v.1.15,2013-01-29 19:58:00,
2013-01-29 13:59:00,77.9,61.4,29.49,South,176,10.0,14.0,57,0.00,,,0.00,Wunderground v.1.15,2013-01-29 19:59:00,
2013-01-29 14:03:00,77.7,61.7,29.46,SW,224,9.0,11.0,58,0.00,,,0.00,Wunderground v.1.15,2013-01-29 20:03:00,
2013-01-29 14:04:00,77.9,61.9,29.46,SSW,202,9.0,11.0,58,0.00,,,0.00,Wunderground v.1.15,2013-01-29 20:04:00,
2013-01-29 14:05:00,77.9,61.9,29.46,South,181,9.0,11.0,58,0.00,,,0.00,Wunderground v.1.15,2013-01-29 20:05:00,
2013-01-29 14:07:00,77.9,61.4,29.46,South,185,8.0,11.0,57,0.00,,,0.00,Wunderground v.1.15,2013-01-29 20:07:00,
2013-01-29 14:11:00,77.9,61.4,29.46,SSW,212,9.0,9.0,57,0.00,,,0.00,Wunderground v.1.15,2013-01-29 20:11:00,
2013-01-29 14:15:00,78.1,61.6,29.45,WSW,244,9.0,11.0,57,0.00,,,0.00,Wunderground v.1.15,2013-01-29 20:15:00,
2013-01-29 14:16:00,78.1,61.6,29.45,South,189,9.0,13.0,57,0.00,,,0.00,Wunderground v.1.15,2013-01-29 20:16:00,
2013-01-29 14:18:00,78.1,61.1,29.45,SSW,208,8.0,13.0,56,0.00,,,0.00,Wunderground v.1.15,2013-01-29 20:18:00,
2013-01-29 14:21:00,78.1,61.1,29.45,SSE,167,8.0,13.0,56,0.00,,,0.00,Wunderground v.1.15,2013-01-29 20:21:00,
2013-01-29 14:23:00,78.1,61.1,29.45,SSW,200,9.0,12.0,56,0.00,,,0.00,Wunderground v.1.15,2013-01-29 20:23:00,
2013-01-29 14:28:00,78.1,60.6,29.45,SW,234,9.0,12.0,55,0.00,,,0.00,Wunderground v.1.15,2013-01-29 20:28:00,
2013-01-29 14:29:00,78.1,60.6,29.45,SW,234,9.0,12.0,55,0.00,,,0.00,Wunderground v.1.15,2013-01-29 20:29:00,
2013-01-29 14:33:00,78.1,60.6,29.45,SW,217,9.0,10.0,55,0.00,,,0.00,Wunderground v.1.15,2013-01-29 20:33:00,
2013-01-29 14:34:00,78.1,60.6,29.45,SW,220,9.0,10.0,55,0.00,,,0.00,Wunderground v.1.15,2013-01-29 20:34:00,
2013-01-29 14:35:00,78.1,60.1,29.45,SSW,193,9.0,10.0,54,0.00,,,0.00,Wunderground v.1.15,2013-01-29 20:35:00,
2013-01-29 14:39:00,78.3,60.3,29.45,SSW,206,6.0,10.0,54,0.00,,,0.00,Wunderground v.1.15,2013-01-29 20:39:00,
2013-01-29 14:41:00,78.3,60.3,29.45,South,189,5.0,10.0,54,0.00,,,0.00,Wunderground v.1.15,2013-01-29 20:41:00,
2013-01-29 14:42:00,78.5,59.9,29.45,SW,219,4.0,9.0,53,0.00,,,0.00,Wunderground v.1.15,2013-01-29 20:42:00,
2013-01-29 14:45:00,78.5,59.4,29.44,SW,216,5.0,12.0,52,0.00,,,0.00,Wunderground v.1.15,2013-01-29 20:45:00,
2013-01-29 14:48:00,78.5,59.4,29.44,SW,220,6.0,12.0,52,0.00,,,0.00,Wunderground v.1.15,2013-01-29 20:48:00,
2013-01-29 14:50:00,78.5,59.4,29.44,SW,217,7.0,12.0,52,0.00,,,0.00,Wunderground v.1.15,2013-01-29 20:50:00,
2013-01-29 14:51:00,78.6,59.5,29.44,SSW,195,8.0,12.0,52,0.00,,,0.00,Wunderground v.1.15,2013-01-29 20:51:00,
2013-01-29 14:56:00,78.8,58.6,29.44,SW,217,8.0,14.0,50,0.00,,,0.00,Wunderground v.1.15,2013-01-29 20:56:00,
2013-01-29 14:57:00,78.8,58.6,29.44,SSW,203,9.0,14.0,50,0.00,,,0.00,Wunderground v.1.15,2013-01-29 20:57:00,
2013-01-29 15:00:00,79.6,58.8,29.44,SW,234,9.0,14.0,49,0.00,,,0.00,Wunderground v.1.15,2013-01-29 21:00:00,
2013-01-29 15:01:00,79.6,58.8,29.44,WSW,243,9.0,9.0,49,0.00,,,0.00,Wunderground v.1.15,2013-01-29 21:01:00,
2013-01-29 15:05:00,79.6,59.3,29.44,SSW,203,7.0,9.0,50,0.00,,,0.00,Wunderground v.1.15,2013-01-29 21:05:00,
2013-01-29 15:07:00,79.8,58.9,29.44,SW,215,7.0,11.0,49,0.00,,,0.00,Wunderground v.1.15,2013-01-29 21:07:00,
2013-01-29 15:10:00,79.8,58.9,29.44,SW,234,7.0,11.0,49,0.00,,,0.00,Wunderground v.1.15,2013-01-29 21:10:00,
2013-01-29 15:11:00,79.8,58.9,29.44,SSW,199,6.0,7.0,49,0.00,,,0.00,Wunderground v.1.15,2013-01-29 21:11:00,
2013-01-29 15:14:00,79.9,59.0,29.44,SSW,193,6.0,7.0,49,0.00,,,0.00,Wunderground v.1.15,2013-01-29 21:14:00,
2013-01-29 15:15:00,79.9,59.0,29.43,SW,215,7.0,7.0,49,0.00,,,0.00,Wunderground v.1.15,2013-01-29 21:15:00,
2013-01-29 15:21:00,80.9,59.4,29.43,SSW,192,6.0,6.0,48,0.00,,,0.00,Wunderground v.1.15,2013-01-29 21:21:00,
2013-01-29 15:24:00,81.1,58.4,29.43,SSW,199,6.0,11.0,46,0.00,,,0.00,Wunderground v.1.15,2013-01-29 21:24:00,
2013-01-29 15:29:00,81.8,59.0,29.43,South,169,8.0,18.0,46,0.00,,,0.00,Wunderground v.1.15,2013-01-29 21:29:00,
2013-01-29 15:31:00,82.0,56.0,29.42,South,182,8.0,8.0,41,0.00,,,0.00,Wunderground v.1.15,2013-01-29 21:31:00,
2013-01-29 15:34:00,82.4,56.3,29.42,SSW,209,9.0,11.0,41,0.00,,,0.00,Wunderground v.1.15,2013-01-29 21:34:00,
2013-01-29 15:37:00,82.6,55.8,29.42,South,184,8.0,13.0,40,0.00,,,0.00,Wunderground v.1.15,2013-01-29 21:37:00,
2013-01-29 15:38:00,82.6,55.1,29.42,SE,141,9.0,13.0,39,0.00,,,0.00,Wunderground v.1.15,2013-01-29 21:38:00,
2013-01-29 15:39:00,82.6,55.1,29.42,SSW,203,9.0,15.0,39,0.00,,,0.00,Wunderground v.1.15,2013-01-29 21:39:00,
2013-01-29 15:42:00,82.6,55.1,29.42,SSW,206,8.0,8.0,39,0.00,,,0.00,Wunderground v.1.15,2013-01-29 21:42:00,
2013-01-29 15:43:00,82.6,55.1,29.42,SW,220,8.0,9.0,39,0.00,,,0.00,Wunderground v.1.15,2013-01-29 21:43:00,
2013-01-29 15:46:00,82.6,55.1,29.41,SSW,212,8.0,14.0,39,0.00,,,0.00,Wunderground v.1.15,2013-01-29 21:46:00,
2013-01-29 15:47:00,82.8,54.6,29.41,SW,224,8.0,14.0,38,0.00,,,0.00,Wunderground v.1.15,2013-01-29 21:47:00,
2013-01-29 15:48:00,82.8,54.6,29.41,SW,215,8.0,14.0,38,0.00,,,0.00,Wunderground v.1.15,2013-01-29 21:48:00,
2013-01-29 15:51:00,83.0,54.8,29.41,WSW,247,8.0,8.0,38,0.00,,,0.00,Wunderground v.1.15,2013-01-29 21:51:00,
2013-01-29 15:52:00,83.0,54.8,29.41,SSW,203,9.0,10.0,38,0.00,,,0.00,Wunderground v.1.15,2013-01-29 21:52:00,
2013-01-29 15:58:00,83.2,55.0,29.41,SSW,192,8.0,18.0,38,0.00,,,0.00,Wunderground v.1.15,2013-01-29 21:58:00,
2013-01-29 16:01:00,83.0,53.3,29.40,South,182,8.0,8.0,36,0.00,,,0.00,Wunderground v.1.15,2013-01-29 22:01:00,
2013-01-29 16:06:00,82.6,52.2,29.40,SE,144,9.0,19.0,35,0.00,,,0.00,Wunderground v.1.15,2013-01-29 22:06:00,
2013-01-29 16:11:00,83.0,51.7,29.40,SW,216,9.0,9.0,34,0.00,,,0.00,Wunderground v.1.15,2013-01-29 22:11:00,
2013-01-29 16:12:00,83.2,51.9,29.40,SW,220,9.0,9.0,34,0.00,,,0.00,Wunderground v.1.15,2013-01-29 22:12:00,
2013-01-29 16:13:00,83.2,51.9,29.40,South,176,9.0,9.0,34,0.00,,,0.00,Wunderground v.1.15,2013-01-29 22:13:00,
2013-01-29 16:16:00,83.4,51.3,29.40,SSW,200,7.0,9.0,33,0.00,,,0.00,Wunderground v.1.15,2013-01-29 22:16:00,
2013-01-29 16:17:00,83.6,50.6,29.40,SSE,167,8.0,10.0,32,0.00,,,0.00,Wunderground v.1.15,2013-01-29 22:17:00,
2013-01-29 16:21:00,83.4,50.4,29.40,SSE,162,9.0,9.0,32,0.00,,,0.00,Wunderground v.1.15,2013-01-29 22:21:00,
2013-01-29 16:22:00,83.4,50.4,29.40,South,182,10.0,16.0,32,0.00,,,0.00,Wunderground v.1.15,2013-01-29 22:22:00,
2013-01-29 16:24:00,83.4,50.4,29.40,SSW,208,10.0,16.0,32,0.00,,,0.00,Wunderground v.1.15,2013-01-29 22:24:00,
2013-01-29 16:27:00,83.4,50.4,29.40,South,191,10.0,16.0,32,0.00,,,0.00,Wunderground v.1.15,2013-01-29 22:27:00,
2013-01-29 16:29:00,83.4,50.4,29.40,SSW,195,9.0,16.0,32,0.00,,,0.00,Wunderground v.1.15,2013-01-29 22:29:00,
2013-01-29 16:32:00,83.6,48.9,29.40,South,191,9.0,10.0,30,0.00,,,0.00,Wunderground v.1.15,2013-01-29 22:32:00,
2013-01-29 16:34:00,83.6,49.8,29.40,SSW,205,9.0,10.0,31,0.00,,,0.00,Wunderground v.1.15,2013-01-29 22:34:00,
2013-01-29 16:35:00,83.6,48.9,29.40,South,188,9.0,12.0,30,0.00,,,0.00,Wunderground v.1.15,2013-01-29 22:35:00,
2013-01-29 16:38:00,83.8,49.1,29.40,South,176,9.0,18.0,30,0.00,,,0.00,Wunderground v.1.15,2013-01-29 22:38:00,
2013-01-29 16:39:00,83.8,48.1,29.40,SW,223,9.0,18.0,29,0.00,,,0.00,Wunderground v.1.15,2013-01-29 22:39:00,
2013-01-29 16:40:00,83.8,48.1,29.40,South,179,9.0,18.0,29,0.00,,,0.00,Wunderground v.1.15,2013-01-29 22:40:00,
2013-01-29 16:43:00,83.6,48.0,29.40,SSW,198,9.0,11.0,29,0.00,,,0.00,Wunderground v.1.15,2013-01-29 22:43:00,
2013-01-29 16:45:00,83.6,48.0,29.40,South,182,9.0,11.0,29,0.00,,,0.00,Wunderground v.1.15,2013-01-29 22:45:00,
2013-01-29 16:47:00,83.6,47.0,29.39,SW,227,9.0,12.0,28,0.00,,,0.00,Wunderground v.1.15,2013-01-29 22:47:00,
2013-01-29 16:50:00,83.6,47.0,29.39,South,181,9.0,12.0,28,0.00,,,0.00,Wunderground v.1.15,2013-01-29 22:50:00,
2013-01-29 16:53:00,83.8,48.1,29.39,SW,236,7.0,8.0,29,0.00,,,0.00,Wunderground v.1.15,2013-01-29 22:53:00,
2013-01-29 16:56:00,83.6,47.0,29.39,SW,219,7.0,12.0,28,0.00,,,0.00,Wunderground v.1.15,2013-01-29 22:56:00,
2013-01-29 16:59:00,83.4,46.9,29.39,South,186,6.0,12.0,28,0.00,,,0.00,Wunderground v.1.15,2013-01-29 22:59:00,
2013-01-29 17:00:00,83.4,46.9,29.39,South,179,7.0,12.0,28,0.00,,,0.00,Wunderground v.1.15,2013-01-29 23:00:00,
2013-01-29 17:03:00,83.4,46.9,29.39,SSW,202,8.0,22.0,28,0.00,,,0.00,Wunderground v.1.15,2013-01-29 23:03:00,
2013-01-29 17:06:00,83.2,46.7,29.39,South,185,8.0,22.0,28,0.00,,,0.00,Wunderground v.1.15,2013-01-29 23:06:00,
2013-01-29 17:10:00,83.2,46.7,29.39,South,185,8.0,22.0,28,0.00,,,0.00,Wunderground v.1.15,2013-01-29 23:10:00,
2013-01-29 17:11:00,83.2,46.7,29.39,SW,217,9.0,22.0,28,0.00,,,0.00,Wunderground v.1.15,2013-01-29 23:11:00,
2013-01-29 17:13:00,83.2,46.7,29.39,SW,230,8.0,11.0,28,0.00,,,0.00,Wunderground v.1.15,2013-01-29 23:13:00,
2013-01-29 17:15:00,83.0,45.6,29.39,WSW,257,8.0,12.0,27,0.00,,,0.00,Wunderground v.1.15,2013-01-29 23:15:00,
2013-01-29 17:16:00,83.0,46.5,29.43,WNW,285,8.0,12.0,28,0.00,,,0.00,Wunderground v.1.15,2013-01-29 23:16:00,
2013-01-29 17:18:00,83.0,46.5,29.43,NNW,335,8.0,13.0,28,0.00,,,0.00,Wunderground v.1.15,2013-01-29 23:18:00,
2013-01-29 17:20:00,82.2,46.8,29.43,NW,312,8.0,20.0,29,0.00,,,0.00,Wunderground v.1.15,2013-01-29 23:20:00,
2013-01-29 17:24:00,74.9,44.6,29.43,NW,309,12.0,19.0,34,0.00,,,0.00,Wunderground v.1.15,2013-01-29 23:24:00,
2013-01-29 17:26:00,72.7,42.7,29.43,North,353,15.0,19.0,34,0.00,,,0.00,Wunderground v.1.15,2013-01-29 23:26:00,
2013-01-29 17:28:00,71.5,41.6,29.43,NW,322,16.0,19.0,34,0.00,,,0.00,Wunderground v.1.15,2013-01-29 23:28:00,
2013-01-29 17:30:00,70.4,45.6,29.43,North,6,17.0,20.0,41,0.00,,,0.00,Wunderground v.1.15,2013-01-29 23:30:00,
2013-01-29 17:31:00,69.8,44.4,29.48,North,352,17.0,17.0,40,0.00,,,0.00,Wunderground v.1.15,2013-01-29 23:31:00,
2013-01-29 17:33:00,69.4,44.0,29.48,NNW,342,18.0,18.0,40,0.00,,,0.00,Wunderground v.1.15,2013-01-29 23:33:00,
2013-01-29 17:35:00,68.9,44.2,29.48,North,0,17.0,20.0,41,0.00,,,0.00,Wunderground v.1.15,2013-01-29 23:35:00,
2013-01-29 17:37:00,68.6,43.9,29.48,NW,309,17.0,25.0,41,0.00,,,0.00,Wunderground v.1.15,2013-01-29 23:37:00,
2013-01-29 17:40:00,68.3,44.3,29.48,North,352,17.0,25.0,42,0.00,,,0.00,Wunderground v.1.15,2013-01-29 23:40:00,
2013-01-29 17:41:00,68.1,44.1,29.48,NW,322,17.0,29.0,42,0.00,,,0.00,Wunderground v.1.15,2013-01-29 23:41:00,
2013-01-29 17:42:00,67.9,44.0,29.48,NNW,344,17.0,21.0,42,0.00,,,0.00,Wunderground v.1.15,2013-01-29 23:42:00,
2013-01-29 17:45:00,67.6,43.1,29.48,NNW,339,17.0,22.0,41,0.00,,,0.00,Wunderground v.1.15,2013-01-29 23:45:00,
2013-01-29 17:47:00,67.3,42.8,29.51,NW,322,16.0,22.0,41,0.00,,,0.00,Wunderground v.1.15,2013-01-29 23:47:00,
2013-01-29 17:49:00,67.1,42.6,29.51,NNW,328,16.0,22.0,41,0.00,,,0.00,Wunderground v.1.15,2013-01-29 23:49:00,
2013-01-29 17:50:00,66.9,42.4,29.51,NW,306,16.0,22.0,41,0.00,,,0.00,Wunderground v.1.15,2013-01-29 23:50:00,
2013-01-29 17:52:00,66.8,42.3,29.51,North,357,16.0,17.0,41,0.00,,,0.00,Wunderground v.1.15,2013-01-29 23:52:00,
2013-01-29 17:54:00,66.6,42.8,29.51,NW,315,16.0,20.0,42,0.00,,,0.00,Wunderground v.1.15,2013-01-29 23:54:00,
2013-01-29 17:56:00,66.6,42.8,29.51,NNW,343,15.0,20.0,42,0.00,,,0.00,Wunderground v.1.15,2013-01-29 23:56:00,
2013-01-29 17:57:00,66.4,42.6,29.51,NNW,340,15.0,20.0,42,0.00,,,0.00,Wunderground v.1.15,2013-01-29 23:57:00,
2013-01-29 18:00:00,66.3,42.5,29.51,NW,326,16.0,25.0,42,0.00,,,0.00,Wunderground v.1.15,2013-01-30 00:00:00,
2013-01-29 18:02:00,66.3,42.5,29.51,NW,326,15.0,15.0,42,0.00,,,0.00,Wunderground v.1.15,2013-01-30 00:02:00,
2013-01-29 18:05:00,66.1,42.3,29.51,NW,318,15.0,29.0,42,0.00,,,0.00,Wunderground v.1.15,2013-01-30 00:05:00,
2013-01-29 18:07:00,66.0,42.2,29.51,NNW,332,17.0,29.0,42,0.00,,,0.00,Wunderground v.1.15,2013-01-30 00:07:00,
2013-01-29 18:08:00,66.0,42.9,29.51,NW,316,16.0,29.0,43,0.00,,,0.00,Wunderground v.1.15,2013-01-30 00:08:00,
2013-01-29 18:12:00,65.8,42.1,29.51,NW,309,15.0,21.0,42,0.00,,,0.00,Wunderground v.1.15,2013-01-30 00:12:00,
2013-01-29 18:13:00,65.6,41.9,29.51,North,354,15.0,21.0,42,0.00,,,0.00,Wunderground v.1.15,2013-01-30 00:13:00,
2013-01-29 18:14:00,65.6,41.9,29.51,NNW,336,15.0,21.0,42,0.00,,,0.00,Wunderground v.1.15,2013-01-30 00:14:00,
2013-01-29 18:17:00,65.6,41.9,29.52,WNW,301,14.0,22.0,42,0.00,,,0.00,Wunderground v.1.15,2013-01-30 00:17:00,
2013-01-29 18:18:00,65.6,41.3,29.52,NW,311,15.0,22.0,41,0.00,,,0.00,Wunderground v.1.15,2013-01-30 00:18:00,
2013-01-29 18:19:00,65.6,41.3,29.52,NW,323,16.0,22.0,41,0.00,,,0.00,Wunderground v.1.15,2013-01-30 00:19:00,
2013-01-29 18:23:00,65.5,41.8,29.52,NNW,344,15.0,16.0,42,0.00,,,0.00,Wunderground v.1.15,2013-01-30 00:23:00,
2013-01-29 18:25:00,65.3,41.6,29.52,NNW,340,15.0,20.0,42,0.00,,,0.00,Wunderground v.1.15,2013-01-30 00:25:00,
2013-01-29 18:26:00,65.3,41.6,29.52,NNW,344,15.0,20.0,42,0.00,,,0.00,Wunderground v.1.15,2013-01-30 00:26:00,
2013-01-29 18:30:00,65.2,40.9,29.52,NNW,344,13.0,20.0,41,0.00,,,0.00,Wunderground v.1.15,2013-01-30 00:30:00,
2013-01-29 18:31:00,65.2,40.9,29.52,North,7,13.0,13.0,41,0.00,,,0.00,Wunderground v.1.15,2013-01-30 00:31:00,
2013-01-29 18:32:00,65.2,40.9,29.52,NNW,330,13.0,13.0,41,0.00,,,0.00,Wunderground v.1.15,2013-01-30 00:32:00,
2013-01-29 18:37:00,65.0,40.7,29.52,NNW,347,14.0,18.0,41,0.00,,,0.00,Wunderground v.1.15,2013-01-30 00:37:00,
2013-01-29 18:38:00,65.0,40.7,29.52,North,359,14.0,18.0,41,0.00,,,0.00,Wunderground v.1.15,2013-01-30 00:38:00,
2013-01-29 18:40:00,65.0,39.4,29.52,NW,323,14.0,18.0,39,0.00,,,0.00,Wunderground v.1.15,2013-01-30 00:40:00,
2013-01-29 18:42:00,65.0,39.4,29.52,North,354,14.0,14.0,39,0.00,,,0.00,Wunderground v.1.15,2013-01-30 00:42:00,
2013-01-29 18:46:00,64.8,39.9,29.53,NW,326,13.0,14.0,40,0.00,,,0.00,Wunderground v.1.15,2013-01-30 00:46:00,
2013-01-29 18:47:00,64.8,39.9,29.53,WNW,301,12.0,18.0,40,0.00,,,0.00,Wunderground v.1.15,2013-01-30 00:47:00,
2013-01-29 18:51:00,64.7,39.2,29.53,WNW,292,10.0,11.0,39,0.00,,,0.00,Wunderground v.1.15,2013-01-30 00:51:00,
2013-01-29 18:52:00,64.7,39.2,29.53,NNW,330,10.0,11.0,39,0.00,,,0.00,Wunderground v.1.15,2013-01-30 00:52:00,
2013-01-29 18:53:00,64.7,38.5,29.53,NNW,335,10.0,11.0,38,0.00,,,0.00,Wunderground v.1.15,2013-01-30 00:53:00,
2013-01-29 18:57:00,64.7,38.5,29.53,North,356,11.0,17.0,38,0.00,,,0.00,Wunderground v.1.15,2013-01-30 00:57:00,
2013-01-29 18:58:00,64.7,37.8,29.53,North,352,11.0,17.0,37,0.00,,,0.00,Wunderground v.1.15,2013-01-30 00:58:00,
2013-01-29 19:03:00,64.5,37.6,29.55,NW,318,11.0,19.0,37,0.00,,,0.00,Wunderground v.1.15,2013-01-30 01:03:00,
2013-01-29 19:05:00,64.5,37.6,29.55,NNW,346,11.0,19.0,37,0.00,,,0.00,Wunderground v.1.15,2013-01-30 01:05:00,
2013-01-29 19:06:00,64.3,36.8,29.55,NW,325,10.0,19.0,36,0.00,,,0.00,Wunderground v.1.15,2013-01-30 01:06:00,
2013-01-29 19:08:00,64.3,36.8,29.55,North,353,11.0,19.0,36,0.00,,,0.00,Wunderground v.1.15,2013-01-30 01:08:00,
2013-01-29 19:10:00,64.3,36.8,29.55,NW,311,11.0,19.0,36,0.00,,,0.00,Wunderground v.1.15,2013-01-30 01:10:00,
2013-01-29 19:14:00,64.3,36.0,29.55,North,359,11.0,18.0,35,0.00,,,0.00,Wunderground v.1.15,2013-01-30 01:14:00,
2013-01-29 19:16:00,64.3,36.0,29.56,North,354,12.0,18.0,35,0.00,,,0.00,Wunderground v.1.15,2013-01-30 01:16:00,
2013-01-29 19:20:00,64.2,36.0,29.56,North,0,11.0,18.0,35,0.00,,,0.00,Wunderground v.1.15,2013-01-30 01:20:00,
2013-01-29 19:21:00,64.2,36.0,29.56,North,6,11.0,12.0,35,0.00,,,0.00,Wunderground v.1.15,2013-01-30 01:21:00,
2013-01-29 19:26:00,64.0,35.8,29.56,NW,326,10.0,15.0,35,0.00,,,0.00,Wunderground v.1.15,2013-01-30 01:26:00,
2013-01-29 19:27:00,64.0,35.8,29.56,NW,313,10.0,15.0,35,0.00,,,0.00,Wunderground v.1.15,2013-01-30 01:27:00,
2013-01-29 19:28:00,64.0,35.8,29.56,NNW,340,10.0,15.0,35,0.00,,,0.00,Wunderground v.1.15,2013-01-30 01:28:00,
2013-01-29 19:33:00,63.9,35.0,29.57,NW,311,10.0,11.0,34,0.00,,,0.00,Wunderground v.1.15,2013-01-30 01:33:00,
2013-01-29 19:34:00,63.9,35.0,29.57,NW,315,10.0,11.0,34,0.00,,,0.00,Wunderground v.1.15,2013-01-30 01:34:00,
2013-01-29 19:37:00,63.9,35.0,29.57,NW,315,11.0,13.0,34,0.00,,,0.00,Wunderground v.1.15,2013-01-30 01:37:00,
2013-01-29 19:40:00,63.7,34.8,29.57,NNW,346,11.0,13.0,34,0.00,,,0.00,Wunderground v.1.15,2013-01-30 01:40:00,
2013-01-29 19:41:00,63.7,34.8,29.57,NNW,339,10.0,10.0,34,0.00,,,0.00,Wunderground v.1.15,2013-01-30 01:41:00,
2013-01-29 19:43:00,63.7,35.5,29.57,NW,326,10.0,13.0,35,0.00,,,0.00,Wunderground v.1.15,2013-01-30 01:43:00,
2013-01-29 19:45:00,63.5,35.3,29.57,NNW,333,9.0,13.0,35,0.00,,,0.00,Wunderground v.1.15,2013-01-30 01:45:00,
2013-01-29 19:47:00,63.5,34.6,29.58,North,7,9.0,13.0,34,0.00,,,0.00,Wunderground v.1.15,2013-01-30 01:47:00,
2013-01-29 19:48:00,63.5,34.6,29.58,NNW,333,8.0,13.0,34,0.00,,,0.00,Wunderground v.1.15,2013-01-30 01:48:00,
2013-01-29 19:51:00,63.4,34.5,29.58,NNW,330,9.0,9.0,34,0.00,,,0.00,Wunderground v.1.15,2013-01-30 01:51:00,
2013-01-29 19:53:00,63.4,34.5,29.58,NNW,336,8.0,11.0,34,0.00,,,0.00,Wunderground v.1.15,2013-01-30 01:53:00,
2013-01-29 19:54:00,63.4,35.2,29.58,NW,316,8.0,11.0,35,0.00,,,0.00,Wunderground v.1.15,2013-01-30 01:54:00,
2013-01-29 19:56:00,63.2,35.1,29.58,North,0,9.0,11.0,35,0.00,,,0.00,Wunderground v.1.15,2013-01-30 01:56:00,
2013-01-29 19:59:00,63.2,34.3,29.58,NNW,332,9.0,12.0,34,0.00,,,0.00,Wunderground v.1.15,2013-01-30 01:59:00,
2013-01-29 20:02:00,63.1,35.0,29.58,NNW,336,9.0,11.0,35,0.00,,,0.00,Wunderground v.1.15,2013-01-30 02:02:00,
2013-01-29 20:04:00,63.1,35.0,29.58,NNW,343,9.0,11.0,35,0.00,,,0.00,Wunderground v.1.15,2013-01-30 02:04:00,
2013-01-29 20:05:00,63.1,35.0,29.58,NNW,339,9.0,12.0,35,0.00,,,0.00,Wunderground v.1.15,2013-01-30 02:05:00,
2013-01-29 20:06:00,63.1,35.0,29.58,NNE,32,9.0,12.0,35,0.00,,,0.00,Wunderground v.1.15,2013-01-30 02:06:00,
2013-01-29 20:09:00,62.9,34.8,29.58,North,356,8.0,12.0,35,0.00,,,0.00,Wunderground v.1.15,2013-01-30 02:09:00,
2013-01-29 20:10:00,62.9,34.8,29.58,North,0,8.0,13.0,35,0.00,,,0.00,Wunderground v.1.15,2013-01-30 02:10:00,
2013-01-29 20:15:00,62.7,34.6,29.58,North,0,7.0,8.0,35,0.00,,,0.00,Wunderground v.1.15,2013-01-30 02:15:00,
2013-01-29 20:16:00,62.7,34.6,29.59,North,359,7.0,13.0,35,0.00,,,0.00,Wunderground v.1.15,2013-01-30 02:16:00,
2013-01-29 20:17:00,62.7,34.6,29.59,NNW,343,7.0,13.0,35,0.00,,,0.00,Wunderground v.1.15,2013-01-30 02:17:00,
2013-01-29 20:22:00,62.6,34.5,29.59,North,0,7.0,7.0,35,0.00,,,0.00,Wunderground v.1.15,2013-01-30 02:22:00,
2013-01-29 20:23:00,62.6,34.5,29.59,NW,323,7.0,7.0,35,0.00,,,0.00,Wunderground v.1.15,2013-01-30 02:23:00,
2013-01-29 20:25:00,62.4,34.4,29.59,North,359,7.0,7.0,35,0.00,,,0.00,Wunderground v.1.15,2013-01-30 02:25:00,
2013-01-29 20:26:00,62.4,34.4,29.59,NW,325,7.0,7.0,35,0.00,,,0.00,Wunderground v.1.15,2013-01-30 02:26:00,
2013-01-29 20:28:00,62.4,35.1,29.59,NNW,347,6.0,7.0,36,0.00,,,0.00,Wunderground v.1.15,2013-01-30 02:28:00,
2013-01-29 20:29:00,62.3,35.0,29.59,NNW,346,5.0,7.0,36,0.00,,,0.00,Wunderground v.1.15,2013-01-30 02:29:00,
2013-01-29 20:31:00,62.3,35.0,29.61,North,349,5.0,7.0,36,0.00,,,0.00,Wunderground v.1.15,2013-01-30 02:31:00,
2013-01-29 20:33:00,62.3,35.0,29.61,North,0,5.0,6.0,36,0.00,,,0.00,Wunderground v.1.15,2013-01-30 02:33:00,
2013-01-29 20:34:00,62.1,34.8,29.61,North,357,5.0,6.0,36,0.00,,,0.00,Wunderground v.1.15,2013-01-30 02:34:00,
2013-01-29 20:37:00,62.1,34.8,29.61,North,3,4.0,6.0,36,0.00,,,0.00,Wunderground v.1.15,2013-01-30 02:37:00,
2013-01-29 20:39:00,62.0,34.7,29.61,NNE,14,4.0,7.0,36,0.00,,,0.00,Wunderground v.1.15,2013-01-30 02:39:00,
2013-01-29 20:41:00,62.0,35.4,29.61,NW,326,4.0,7.0,37,0.00,,,0.00,Wunderground v.1.15,2013-01-30 02:41:00,
2013-01-29 20:45:00,61.8,35.2,29.61,NW,309,4.0,9.0,37,0.00,,,0.00,Wunderground v.1.15,2013-01-30 02:45:00,
2013-01-29 20:46:00,61.8,34.5,29.63,NNW,337,4.0,9.0,36,0.00,,,0.00,Wunderground v.1.15,2013-01-30 02:46:00,
2013-01-29 20:47:00,61.6,35.1,29.63,NW,320,4.0,9.0,37,0.00,,,0.00,Wunderground v.1.15,2013-01-30 02:47:00,
2013-01-29 20:48:00,61.6,35.1,29.63,North,359,5.0,9.0,37,0.00,,,0.00,Wunderground v.1.15,2013-01-30 02:48:00,
2013-01-29 20:51:00,61.5,35.0,29.63,NNW,336,6.0,9.0,37,0.00,,,0.00,Wunderground v.1.15,2013-01-30 02:51:00,
2013-01-29 20:54:00,61.5,34.3,29.63,NW,323,6.0,8.0,36,0.00,,,0.00,Wunderground v.1.15,2013-01-30 02:54:00,
2013-01-29 20:55:00,61.5,33.6,29.63,NNE,17,6.0,8.0,35,0.00,,,0.00,Wunderground v.1.15,2013-01-30 02:55:00,
2013-01-29 20:57:00,61.3,33.4,29.63,NNW,328,6.0,9.0,35,0.00,,,0.00,Wunderground v.1.15,2013-01-30 02:57:00,
2013-01-29 21:00:00,61.3,33.4,29.63,NNW,335,7.0,12.0,35,0.00,,,0.00,Wunderground v.1.15,2013-01-30 03:00:00,
2013-01-29 21:02:00,61.3,32.7,29.63,NNW,333,7.0,8.0,34,0.00,,,0.00,Wunderground v.1.15,2013-01-30 03:02:00,
2013-01-29 21:03:00,61.3,32.7,29.63,NW,323,7.0,12.0,34,0.00,,,0.00,Wunderground v.1.15,2013-01-30 03:03:00,
2013-01-29 21:04:00,61.3,32.7,29.63,NNW,329,8.0,12.0,34,0.00,,,0.00,Wunderground v.1.15,2013-01-30 03:04:00,
2013-01-29 21:07:00,61.3,32.7,29.63,North,349,7.0,12.0,34,0.00,,,0.00,Wunderground v.1.15,2013-01-30 03:07:00,
2013-01-29 21:09:00,61.3,31.9,29.63,NNW,333,7.0,12.0,33,0.00,,,0.00,Wunderground v.1.15,2013-01-30 03:09:00,
2013-01-29 21:11:00,61.2,31.8,29.63,NNW,339,7.0,7.0,33,0.00,,,0.00,Wunderground v.1.15,2013-01-30 03:11:00,
2013-01-29 21:13:00,61.2,31.8,29.63,WNW,301,7.0,14.0,33,0.00,,,0.00,Wunderground v.1.15,2013-01-30 03:13:00,
2013-01-29 21:15:00,61.2,31.8,29.63,NW,316,7.0,14.0,33,0.00,,,0.00,Wunderground v.1.15,2013-01-30 03:15:00,
2013-01-29 21:17:00,61.2,31.8,29.64,NNW,328,7.0,14.0,33,0.00,,,0.00,Wunderground v.1.15,2013-01-30 03:17:00,
2013-01-29 21:18:00,61.0,31.7,29.64,NNW,337,6.0,14.0,33,0.00,,,0.00,Wunderground v.1.15,2013-01-30 03:18:00,
2013-01-29 21:20:00,61.0,31.7,29.64,NW,316,6.0,14.0,33,0.00,,,0.00,Wunderground v.1.15,2013-01-30 03:20:00,
2013-01-29 21:22:00,60.9,31.6,29.64,WNW,302,6.0,7.0,33,0.00,,,0.00,Wunderground v.1.15,2013-01-30 03:22:00,
2013-01-29 21:23:00,60.9,31.6,29.64,NW,320,6.0,7.0,33,0.00,,,0.00,Wunderground v.1.15,2013-01-30 03:23:00,
2013-01-29 21:27:00,60.7,31.4,29.64,NW,319,6.0,7.0,33,0.00,,,0.00,Wunderground v.1.15,2013-01-30 03:27:00,
2013-01-29 21:29:00,60.7,31.4,29.64,North,357,6.0,10.0,33,0.00,,,0.00,Wunderground v.1.15,2013-01-30 03:29:00,
2013-01-29 21:32:00,60.5,31.2,29.64,North,357,6.0,6.0,33,0.00,,,0.00,Wunderground v.1.15,2013-01-30 03:32:00,
2013-01-29 21:33:00,60.5,31.2,29.64,NNW,336,6.0,10.0,33,0.00,,,0.00,Wunderground v.1.15,2013-01-30 03:33:00,
2013-01-29 21:35:00,60.5,31.2,29.64,NNW,336,7.0,10.0,33,0.00,,,0.00,Wunderground v.1.15,2013-01-30 03:35:00,
2013-01-29 21:38:00,60.4,30.4,29.64,NNW,343,7.0,13.0,32,0.00,,,0.00,Wunderground v.1.15,2013-01-30 03:38:00,
2013-01-29 21:40:00,60.4,30.4,29.64,NNW,346,7.0,13.0,32,0.00,,,0.00,Wunderground v.1.15,2013-01-30 03:40:00,
2013-01-29 21:41:00,60.4,29.6,29.64,NW,308,7.0,11.0,31,0.00,,,0.00,Wunderground v.1.15,2013-01-30 03:41:00,
2013-01-29 21:42:00,60.4,29.6,29.64,NNW,333,7.0,11.0,31,0.00,,,0.00,Wunderground v.1.15,2013-01-30 03:42:00,
2013-01-29 21:45:00,60.5,29.7,29.64,NNW,332,8.0,11.0,31,0.00,,,0.00,Wunderground v.1.15,2013-01-30 03:45:00,
2013-01-29 21:47:00,60.4,29.6,29.65,NW,325,8.0,11.0,31,0.00,,,0.00,Wunderground v.1.15,2013-01-30 03:47:00,
2013-01-29 21:48:00,60.4,29.6,29.65,NW,308,8.0,11.0,31,0.00,,,0.00,Wunderground v.1.15,2013-01-30 03:48:00,
2013-01-29 21:51:00,60.4,29.6,29.65,North,0,8.0,8.0,31,0.00,,,0.00,Wunderground v.1.15,2013-01-30 03:51:00,
2013-01-29 21:53:00,60.4,29.6,29.65,North,0,8.0,13.0,31,0.00,,,0.00,Wunderground v.1.15,2013-01-30 03:53:00,
2013-01-29 21:54:00,60.4,29.6,29.65,NNW,346,8.0,13.0,31,0.00,,,0.00,Wunderground v.1.15,2013-01-30 03:54:00,
2013-01-29 21:55:00,60.4,29.6,29.65,NNW,339,8.0,13.0,31,0.00,,,0.00,Wunderground v.1.15,2013-01-30 03:55:00,
2013-01-29 21:58:00,60.2,29.4,29.65,NW,319,7.0,13.0,31,0.00,,,0.00,Wunderground v.1.15,2013-01-30 03:58:00,
2013-01-29 21:59:00,60.2,29.4,29.65,North,359,7.0,13.0,31,0.00,,,0.00,Wunderground v.1.15,2013-01-30 03:59:00,
2013-01-29 22:01:00,60.1,29.3,29.66,NNW,330,6.0,7.0,31,0.00,,,0.00,Wunderground v.1.15,2013-01-30 04:01:00,
2013-01-29 22:05:00,59.9,29.2,29.66,WNW,302,5.0,10.0,31,0.00,,,0.00,Wunderground v.1.15,2013-01-30 04:05:00,
2013-01-29 22:07:00,59.8,29.1,29.66,NNW,332,6.0,10.0,31,0.00,,,0.00,Wunderground v.1.15,2013-01-30 04:07:00,
2013-01-29 22:12:00,59.6,28.1,29.66,NNW,332,7.0,12.0,30,0.00,,,0.00,Wunderground v.1.15,2013-01-30 04:12:00,
2013-01-29 22:13:00,59.6,28.1,29.66,NNW,344,7.0,12.0,30,0.00,,,0.00,Wunderground v.1.15,2013-01-30 04:13:00,
2013-01-29 22:19:00,59.5,28.0,29.67,NNW,336,8.0,12.0,30,0.00,,,0.00,Wunderground v.1.15,2013-01-30 04:19:00,
2013-01-29 22:20:00,59.5,28.0,29.67,NW,320,8.0,12.0,30,0.00,,,0.00,Wunderground v.1.15,2013-01-30 04:20:00,
2013-01-29 22:22:00,59.3,27.0,29.67,NNW,328,8.0,9.0,29,0.00,,,0.00,Wunderground v.1.15,2013-01-30 04:22:00,
2013-01-29 22:24:00,59.3,27.0,29.67,North,0,7.0,9.0,29,0.00,,,0.00,Wunderground v.1.15,2013-01-30 04:24:00,
2013-01-29 22:27:00,59.2,26.9,29.67,NNW,329,7.0,9.0,29,0.00,,,0.00,Wunderground v.1.15,2013-01-30 04:27:00,
2013-01-29 22:32:00,59.2,26.1,29.68,WNW,285,9.0,13.0,28,0.00,,,0.00,Wunderground v.1.15,2013-01-30 04:32:00,
2013-01-29 22:34:00,59.2,26.1,29.68,North,0,10.0,13.0,28,0.00,,,0.00,Wunderground v.1.15,2013-01-30 04:34:00,
2013-01-29 22:36:00,59.2,26.1,29.68,WNW,295,11.0,13.0,28,0.00,,,0.00,Wunderground v.1.15,2013-01-30 04:36:00,
2013-01-29 22:37:00,59.2,26.1,29.68,NW,313,11.0,13.0,28,0.00,,,0.00,Wunderground v.1.15,2013-01-30 04:37:00,
2013-01-29 22:42:00,58.9,25.8,29.68,NNW,328,9.0,12.0,28,0.00,,,0.00,Wunderground v.1.15,2013-01-30 04:42:00,
2013-01-29 22:45:00,58.9,25.8,29.68,North,357,8.0,12.0,28,0.00,,,0.00,Wunderground v.1.15,2013-01-30 04:45:00,
2013-01-29 22:46:00,58.7,25.6,29.69,NNW,329,7.0,12.0,28,0.00,,,0.00,Wunderground v.1.15,2013-01-30 04:46:00,
2013-01-29 22:47:00,58.7,25.6,29.69,NW,322,6.0,12.0,28,0.00,,,0.00,Wunderground v.1.15,2013-01-30 04:47:00,
2013-01-29 22:50:00,58.6,25.6,29.69,NNW,347,5.0,12.0,28,0.00,,,0.00,Wunderground v.1.15,2013-01-30 04:50:00,
2013-01-29 22:52:00,58.4,26.2,29.69,NNW,344,5.0,5.0,29,0.00,,,0.00,Wunderground v.1.15,2013-01-30 04:52:00,
2013-01-29 22:53:00,58.4,26.2,29.69,North,350,5.0,5.0,29,0.00,,,0.00,Wunderground v.1.15,2013-01-30 04:53:00,
2013-01-29 22:57:00,58.1,26.0,29.69,NNW,342,4.0,7.0,29,0.00,,,0.00,Wunderground v.1.15,2013-01-30 04:57:00,
2013-01-29 22:58:00,58.1,26.0,29.69,NE,35,4.0,7.0,29,0.00,,,0.00,Wunderground v.1.15,2013-01-30 04:58:00,
2013-01-29 22:59:00,58.0,25.9,29.69,North,357,4.0,7.0,29,0.00,,,0.00,Wunderground v.1.15,2013-01-30 04:59:00,
2013-01-29 23:01:00,58.0,25.9,29.71,North,359,4.0,7.0,29,0.00,,,0.00,Wunderground v.1.15,2013-01-30 05:01:00,
2013-01-29 23:04:00,57.8,24.9,29.71,NW,319,5.0,10.0,28,0.00,,,0.00,Wunderground v.1.15,2013-01-30 05:04:00,
2013-01-29 23:05:00,57.6,24.7,29.71,NNW,329,6.0,10.0,28,0.00,,,0.00,Wunderground v.1.15,2013-01-30 05:05:00,
2013-01-29 23:09:00,57.5,25.5,29.71,NNW,337,7.0,10.0,29,0.00,,,0.00,Wunderground v.1.15,2013-01-30 05:09:00,
2013-01-29 23:10:00,57.5,25.5,29.71,NW,319,7.0,10.0,29,0.00,,,0.00,Wunderground v.1.15,2013-01-30 05:10:00,
2013-01-29 23:12:00,57.3,25.3,29.71,NNW,332,7.0,7.0,29,0.00,,,0.00,Wunderground v.1.15,2013-01-30 05:12:00,
2013-01-29 23:13:00,57.3,25.3,29.71,NNW,332,7.0,7.0,29,0.00,,,0.00,Wunderground v.1.15,2013-01-30 05:13:00,
2013-01-29 23:19:00,57.0,24.2,29.70,NW,312,6.0,10.0,28,0.00,,,0.00,Wunderground v.1.15,2013-01-30 05:19:00,
2013-01-29 23:20:00,57.0,24.2,29.70,NW,313,6.0,10.0,28,0.00,,,0.00,Wunderground v.1.15,2013-01-30 05:20:00,
2013-01-29 23:23:00,57.0,24.2,29.70,NNW,343,7.0,7.0,28,0.00,,,0.00,Wunderground v.1.15,2013-01-30 05:23:00,
2013-01-29 23:26:00,56.9,24.1,29.70,NW,312,7.0,10.0,28,0.00,,,0.00,Wunderground v.1.15,2013-01-30 05:26:00,
2013-01-29 23:27:00,56.9,24.1,29.70,NW,313,6.0,10.0,28,0.00,,,0.00,Wunderground v.1.15,2013-01-30 05:27:00,
2013-01-29 23:29:00,56.9,24.1,29.70,NNW,328,6.0,10.0,28,0.00,,,0.00,Wunderground v.1.15,2013-01-30 05:29:00,
2013-01-29 23:33:00,56.7,23.0,29.71,NW,325,6.0,7.0,27,0.00,,,0.00,Wunderground v.1.15,2013-01-30 05:33:00,
2013-01-29 23:34:00,56.7,23.9,29.71,NNW,347,6.0,7.0,28,0.00,,,0.00,Wunderground v.1.15,2013-01-30 05:34:00,
2013-01-29 23:36:00,56.7,23.0,29.71,NW,322,6.0,7.0,27,0.00,,,0.00,Wunderground v.1.15,2013-01-30 05:36:00,
2013-01-29 23:38:00,56.6,23.0,29.71,North,353,6.0,7.0,27,0.00,,,0.00,Wunderground v.1.15,2013-01-30 05:38:00,
2013-01-29 23:39:00,56.6,23.8,29.71,NW,325,6.0,7.0,28,0.00,,,0.00,Wunderground v.1.15,2013-01-30 05:39:00,
2013-01-29 23:41:00,56.6,23.0,29.71,NW,315,4.0,7.0,27,0.00,,,0.00,Wunderground v.1.15,2013-01-30 05:41:00,
2013-01-29 23:45:00,56.5,23.7,29.71,NW,318,3.0,4.0,28,0.00,,,0.00,Wunderground v.1.15,2013-01-30 05:45:00,
2013-01-29 23:46:00,56.5,23.7,29.73,NW,318,3.0,5.0,28,0.00,,,0.00,Wunderground v.1.15,2013-01-30 05:46:00,
2013-01-29 23:49:00,56.3,23.6,29.73,NNW,330,3.0,5.0,28,0.00,,,0.00,Wunderground v.1.15,2013-01-30 05:49:00,
2013-01-29 23:50:00,56.3,23.6,29.73,NNW,330,3.0,5.0,28,0.00,,,0.00,Wunderground v.1.15,2013-01-30 05:50:00,
2013-01-29 23:51:00,56.2,23.5,29.73,NW,325,3.0,5.0,28,0.00,,,0.00,Wunderground v.1.15,2013-01-30 05:51:00,
2013-01-29 23:53:00,56.2,23.5,29.73,NNW,342,3.0,7.0,28,0.00,,,0.00,Wunderground v.1.15,2013-01-30 05:53:00,
2013-01-29 23:56:00,56.2,23.5,29.73,North,0,5.0,8.0,28,0.00,,,0.00,Wunderground v.1.15,2013-01-30 05:56:00,
2013-01-29 23:58:00,56.2,22.6,29.73,NNW,343,5.0,8.0,27,0.00,,,0.00,Wunderground v.1.15,2013-01-30 05:58:00,